DAL14 KMCO-LIMC

Flight info

Callsign DAL14
Flight time 9h 17m
Altitude 37000
Route FATHE4 VIYAP Q87 JROSS Q135 RAPZZ PRONI PUNGO PHITZ DWSEN KW54A PREPI KB63C MONTK VITOL NANSO N55B RAFIN 4550N 4740N 4730N 4720N 4715N SEPAL UN470 LAPEX GALOF PECNO VALKU TIS MEBAK GIPNO BALSI GIGUS MEDAM LAPRI MOGBO TOP M135 ASTIG
Aircraft A339/H-SADE1E2E3GHIJ3J5M1P2RWXY/LB2D1

Departure

Time 2026-04-25 13:10
Airport Orlando International Airport (KMCO)

Arrival

Time 2026-04-25 22:27
Airport Milan Malpensa International Airport (LIMC)
Time Latitude Longitude Altitude Speed Heading
2026-04-25 11:53 28.42643 -81.30276 107 ft 0 kts
2026-04-25 11:55 28.42643 -81.30319 108 ft 0 kts
2026-04-25 12:44 28.42639 -81.30309 109 ft 4 kts 53°
2026-04-25 12:45 28.42624 -81.30327 105 ft 4 kts 19°
2026-04-25 12:45 28.42599 -81.30337 105 ft 4 kts 14°
2026-04-25 12:45 28.42570 -81.30345 106 ft 0 kts 13°
2026-04-25 12:48 28.42563 -81.30348 105 ft 1 kts 360°
2026-04-25 12:48 28.42556 -81.30350 104 ft 1 kts 342°
2026-04-25 12:48 28.42547 -81.30349 105 ft 1 kts 314°
2026-04-25 12:48 28.42540 -81.30344 104 ft 1 kts 285°
2026-04-25 12:49 28.42538 -81.30334 104 ft 0 kts 275°
2026-04-25 12:51 28.42539 -81.30341 104 ft 2 kts 275°
2026-04-25 12:51 28.42539 -81.30371 105 ft 5 kts 264°
2026-04-25 12:51 28.42506 -81.30396 106 ft 7 kts 198°
2026-04-25 12:51 28.42453 -81.30401 106 ft 8 kts 181°
2026-04-25 12:52 28.42412 -81.30401 106 ft 0 kts 180°
2026-04-25 12:52 28.42409 -81.30401 106 ft 2 kts 180°
2026-04-25 12:52 28.42402 -81.30401 106 ft 2 kts 180°
2026-04-25 12:53 28.42378 -81.30392 107 ft 5 kts 156°
2026-04-25 12:53 28.42360 -81.30349 107 ft 7 kts 102°
2026-04-25 12:53 28.42359 -81.30279 108 ft 10 kts 89°
2026-04-25 12:53 28.42361 -81.30186 109 ft 13 kts 89°
2026-04-25 12:54 28.42362 -81.30071 110 ft 16 kts 89°
2026-04-25 12:54 28.42363 -81.29933 109 ft 18 kts 90°
2026-04-25 12:54 28.42363 -81.29880 109 ft 0 kts 89°
2026-04-25 12:57 28.42363 -81.29869 109 ft 4 kts 89°
2026-04-25 12:57 28.42368 -81.29840 108 ft 8 kts 73°
2026-04-25 12:58 28.42420 -81.29797 107 ft 10 kts 15°
2026-04-25 12:58 28.42486 -81.29794 108 ft 9 kts
2026-04-25 12:58 28.42551 -81.29794 108 ft 9 kts 360°
2026-04-25 12:58 28.42617 -81.29796 108 ft 10 kts 359°
2026-04-25 12:59 28.42700 -81.29797 109 ft 13 kts 359°
2026-04-25 12:59 28.42803 -81.29798 108 ft 16 kts 359°
2026-04-25 12:59 28.42922 -81.29799 109 ft 17 kts 360°
2026-04-25 12:59 28.43046 -81.29801 108 ft 18 kts 359°
2026-04-25 13:00 28.43169 -81.29802 108 ft 17 kts 359°
2026-04-25 13:00 28.43248 -81.29803 109 ft 17 kts 359°
2026-04-25 13:00 28.43401 -81.29804 108 ft 16 kts 360°
2026-04-25 13:00 28.43508 -81.29803 109 ft 15 kts
2026-04-25 13:01 28.43548 -81.29723 109 ft 12 kts 84°
2026-04-25 13:01 28.43549 -81.29717 109 ft 0 kts 84°
2026-04-25 13:02 28.43551 -81.29698 109 ft 9 kts 84°
2026-04-25 13:02 28.43554 -81.29569 110 ft 19 kts 91°
2026-04-25 13:02 28.43553 -81.29427 109 ft 17 kts 89°
2026-04-25 13:02 28.43565 -81.29293 110 ft 17 kts 62°
2026-04-25 13:03 28.43675 -81.29263 108 ft 17 kts
2026-04-25 13:03 28.43795 -81.29265 107 ft 17 kts 359°
2026-04-25 13:03 28.43863 -81.29205 106 ft 11 kts 78°
2026-04-25 13:03 28.43870 -81.29117 106 ft 11 kts 89°
2026-04-25 13:04 28.43870 -81.29071 109 ft 0 kts 90°
2026-04-25 13:04 28.43870 -81.29062 110 ft 4 kts 90°
2026-04-25 13:04 28.43872 -81.28917 110 ft 22 kts 89°
2026-04-25 13:04 28.43873 -81.28743 110 ft 22 kts 89°
2026-04-25 13:05 28.43875 -81.28576 110 ft 21 kts 89°
2026-04-25 13:05 28.43887 -81.28421 110 ft 18 kts 63°
2026-04-25 13:05 28.43991 -81.28379 113 ft 16 kts 360°
2026-04-25 13:05 28.44102 -81.28380 111 ft 17 kts 360°
2026-04-25 13:06 28.44216 -81.28381 108 ft 18 kts 359°
2026-04-25 13:06 28.44329 -81.28374 109 ft 14 kts 26°
2026-04-25 13:06 28.44354 -81.28293 110 ft 0 kts 89°
2026-04-25 13:06 28.44349 -81.28283 110 ft 4 kts 110°
2026-04-25 13:07 28.44297 -81.28260 109 ft 9 kts 174°
2026-04-25 13:07 28.44294 -81.28259 109 ft 0 kts 174°
2026-04-25 13:09 28.44283 -81.28258 109 ft 15 kts 175°
2026-04-25 13:09 28.43922 -81.28254 109 ft 88 kts 179°
2026-04-25 13:09 28.43083 -81.28246 106 ft 150 kts 180°
2026-04-25 13:09 28.41901 -81.28236 324 ft 177 kts 180°
2026-04-25 13:10 28.40695 -81.28227 937 ft 179 kts 172°
2026-04-25 13:10 28.39567 -81.27618 1558 ft 184 kts 136°
2026-04-25 13:10 28.38940 -81.26339 2069 ft 195 kts 102°
2026-04-25 13:10 28.38957 -81.24752 2384 ft 212 kts 83°
2026-04-25 13:11 28.39156 -81.23006 2660 ft 230 kts 82°
2026-04-25 13:11 28.39368 -81.21125 2900 ft 248 kts 83°
2026-04-25 13:11 28.39584 -81.19125 3136 ft 263 kts 83°
2026-04-25 13:11 28.39806 -81.17043 3580 ft 267 kts 83°
2026-04-25 13:12 28.40023 -81.14943 4112 ft 269 kts 83°
2026-04-25 13:12 28.40254 -81.12830 4628 ft 271 kts 78°
2026-04-25 13:12 28.40967 -81.10856 5141 ft 272 kts 53°
2026-04-25 13:12 28.41836 -81.09839 5491 ft 271 kts 35°
2026-04-25 13:13 28.44194 -81.08904 6164 ft 275 kts 360°
2026-04-25 13:13 28.46034 -81.09331 6682 ft 275 kts 336°
2026-04-25 13:13 28.47747 -81.10305 7206 ft 276 kts 330°
2026-04-25 13:13 28.49433 -81.11365 7725 ft 278 kts 331°
2026-04-25 13:14 28.51153 -81.12378 8286 ft 278 kts 333°
2026-04-25 13:14 28.52907 -81.13325 8823 ft 280 kts 334°
2026-04-25 13:14 28.54688 -81.14235 9357 ft 282 kts 335°
2026-04-25 13:14 28.56461 -81.15115 9905 ft 283 kts 335°
2026-04-25 13:15 28.58288 -81.16017 10252 ft 292 kts 335°
2026-04-25 13:15 28.60205 -81.16965 10394 ft 307 kts 335°
2026-04-25 13:15 28.62209 -81.17961 10532 ft 323 kts 335°
2026-04-25 13:15 28.64309 -81.19005 10775 ft 332 kts 335°
2026-04-25 13:16 28.66436 -81.20062 11263 ft 334 kts 335°
2026-04-25 13:16 28.68545 -81.21111 11737 ft 336 kts 335°
2026-04-25 13:16 28.70725 -81.22197 12230 ft 338 kts 335°
2026-04-25 13:16 28.72889 -81.23275 12709 ft 341 kts 335°
2026-04-25 13:17 28.75066 -81.24361 13188 ft 343 kts 335°
2026-04-25 13:17 28.77227 -81.25439 13671 ft 345 kts 335°
2026-04-25 13:17 28.79446 -81.26519 14099 ft 347 kts 337°
2026-04-25 13:17 28.81729 -81.27446 14523 ft 350 kts 341°
2026-04-25 13:18 28.84075 -81.28204 14946 ft 352 kts 344°
2026-04-25 13:18 28.86476 -81.28797 15436 ft 353 kts 348°
2026-04-25 13:18 28.88919 -81.29222 15804 ft 357 kts 351°
2026-04-25 13:18 28.91412 -81.29474 16202 ft 360 kts 354°
2026-04-25 13:19 28.93919 -81.29674 16608 ft 363 kts 353°
2026-04-25 13:19 28.96457 -81.29892 16998 ft 366 kts 353°
2026-04-25 13:19 28.99003 -81.30114 17418 ft 368 kts 353°
2026-04-25 13:19 28.99832 -81.30188 17547 ft 369 kts 353°
2026-04-25 13:20 29.04119 -81.30651 18200 ft 373 kts 352°
2026-04-25 13:20 29.06706 -81.30955 18557 ft 375 kts 352°
2026-04-25 13:20 29.09309 -81.31257 18944 ft 377 kts 352°
2026-04-25 13:20 29.11929 -81.31546 19320 ft 379 kts 353°
2026-04-25 13:21 29.14567 -81.31733 19686 ft 381 kts 355°
2026-04-25 13:21 29.17221 -81.31864 20064 ft 383 kts 355°
2026-04-25 13:21 29.19888 -81.31994 20431 ft 384 kts 355°
2026-04-25 13:21 29.22563 -81.32135 20809 ft 386 kts 355°
2026-04-25 13:22 29.25266 -81.32288 21194 ft 388 kts 355°
2026-04-25 13:22 29.27970 -81.32448 21532 ft 390 kts 355°
2026-04-25 13:22 29.30689 -81.32611 21914 ft 392 kts 355°
2026-04-25 13:23 29.36143 -81.32940 22678 ft 396 kts 355°
2026-04-25 13:23 29.38897 -81.33106 23036 ft 398 kts 355°
2026-04-25 13:23 29.41683 -81.33274 23422 ft 400 kts 355°
2026-04-25 13:23 29.44472 -81.33442 23757 ft 402 kts 355°
2026-04-25 13:24 29.47271 -81.33610 24084 ft 404 kts 355°
2026-04-25 13:24 29.50075 -81.33780 24399 ft 405 kts 355°
2026-04-25 13:24 29.52904 -81.33950 24717 ft 407 kts 355°
2026-04-25 13:24 29.55741 -81.34122 25011 ft 410 kts 355°
2026-04-25 13:25 29.58595 -81.34295 25288 ft 412 kts 355°
2026-04-25 13:25 29.61467 -81.34468 25629 ft 413 kts 356°
2026-04-25 13:25 29.64343 -81.34642 25928 ft 415 kts 356°
2026-04-25 13:25 29.67199 -81.34810 26243 ft 416 kts 356°
2026-04-25 13:26 29.70099 -81.34974 26557 ft 418 kts 356°
2026-04-25 13:26 29.73010 -81.35139 26858 ft 420 kts 356°
2026-04-25 13:26 29.75931 -81.35305 27173 ft 421 kts 356°
2026-04-25 13:26 29.78864 -81.35472 27469 ft 423 kts 356°
2026-04-25 13:27 29.81802 -81.35640 27758 ft 424 kts 356°
2026-04-25 13:27 29.84766 -81.35811 28027 ft 427 kts 356°
2026-04-25 13:27 29.87744 -81.35982 28307 ft 428 kts 357°
2026-04-25 13:27 29.90725 -81.36153 28601 ft 430 kts 357°
2026-04-25 13:28 29.93717 -81.36325 28880 ft 431 kts 357°
2026-04-25 13:28 29.99734 -81.36671 29418 ft 434 kts 357°
2026-04-25 13:28 30.02757 -81.36845 29691 ft 436 kts 357°
2026-04-25 13:29 30.05792 -81.37020 29960 ft 437 kts 357°
2026-04-25 13:29 30.08839 -81.37195 30210 ft 439 kts 357°
2026-04-25 13:29 30.11894 -81.37372 30422 ft 441 kts 357°
2026-04-25 13:30 30.18052 -81.37728 30880 ft 444 kts 357°
2026-04-25 13:30 30.21109 -81.37904 31114 ft 446 kts 357°
2026-04-25 13:30 30.24254 -81.38086 31340 ft 447 kts 357°
2026-04-25 13:31 30.30454 -81.38445 31823 ft 450 kts 357°
2026-04-25 13:31 30.33578 -81.38626 32128 ft 449 kts 357°
2026-04-25 13:31 30.36703 -81.38808 32432 ft 449 kts 357°
2026-04-25 13:31 30.39820 -81.38989 32732 ft 448 kts 357°
2026-04-25 13:32 30.42936 -81.39170 32895 ft 448 kts 357°
2026-04-25 13:32 30.49160 -81.39524 32972 ft 446 kts 357°
2026-04-25 13:33 30.55359 -81.39847 32981 ft 454 kts 357°
2026-04-25 13:33 30.61744 -81.40180 32982 ft 463 kts 357°
2026-04-25 13:34 30.68196 -81.40522 32981 ft 464 kts 357°
2026-04-25 13:34 30.74646 -81.40864 32977 ft 463 kts 357°
2026-04-25 13:35 30.81080 -81.41206 32973 ft 463 kts 357°
2026-04-25 13:35 30.87527 -81.41549 32969 ft 463 kts 357°
2026-04-25 13:36 30.93967 -81.41891 32956 ft 463 kts 357°
2026-04-25 13:36 31.00375 -81.42233 32958 ft 463 kts 357°
2026-04-25 13:37 31.06813 -81.42577 32955 ft 463 kts 357°
2026-04-25 13:37 31.13258 -81.42922 32955 ft 463 kts 357°
2026-04-25 13:38 31.18617 -81.43209 32955 ft 463 kts 357°
2026-04-25 13:38 31.25024 -81.42800 32961 ft 463 kts 11°
2026-04-25 13:39 31.31138 -81.40383 32958 ft 465 kts 24°
2026-04-25 13:39 31.37013 -81.37165 32957 ft 466 kts 24°
2026-04-25 13:40 31.42888 -81.33989 32958 ft 466 kts 24°
2026-04-25 13:40 31.48780 -81.30793 32957 ft 466 kts 24°
2026-04-25 13:41 31.54671 -81.27589 32964 ft 467 kts 24°
2026-04-25 13:41 31.60523 -81.24400 32958 ft 466 kts 24°
2026-04-25 13:42 31.66371 -81.21209 32951 ft 466 kts 24°
2026-04-25 13:42 31.72247 -81.17998 32931 ft 466 kts 24°
2026-04-25 13:43 31.78119 -81.14786 32919 ft 466 kts 24°
2026-04-25 13:43 31.83999 -81.11565 32918 ft 466 kts 24°
2026-04-25 13:44 31.89871 -81.08342 32915 ft 466 kts 24°
2026-04-25 13:44 31.95751 -81.05111 32914 ft 466 kts 24°
2026-04-25 13:45 32.01593 -81.01895 32915 ft 466 kts 24°
2026-04-25 13:45 32.07455 -80.98617 32909 ft 467 kts 24°
2026-04-25 13:46 32.13321 -80.95326 32913 ft 467 kts 24°
2026-04-25 13:46 32.19191 -80.92034 32943 ft 467 kts 24°
2026-04-25 13:47 32.25070 -80.88735 32955 ft 467 kts 24°
2026-04-25 13:47 32.30935 -80.85437 32942 ft 467 kts 24°
2026-04-25 13:48 32.36802 -80.82134 32941 ft 467 kts 25°
2026-04-25 13:48 32.42670 -80.78826 32938 ft 467 kts 25°
2026-04-25 13:49 32.48527 -80.75519 32944 ft 467 kts 25°
2026-04-25 13:49 32.54408 -80.72195 32944 ft 467 kts 25°
2026-04-25 13:50 32.60280 -80.68872 32937 ft 468 kts 25°
2026-04-25 13:50 32.66154 -80.65539 32938 ft 468 kts 25°
2026-04-25 13:51 32.71639 -80.61370 32931 ft 470 kts 39°
2026-04-25 13:51 32.76185 -80.55860 32921 ft 471 kts 48°
2026-04-25 13:52 32.80514 -80.49991 32920 ft 472 kts 47°
2026-04-25 13:52 32.84854 -80.44131 32926 ft 473 kts 47°
2026-04-25 13:53 32.89195 -80.38242 32929 ft 473 kts 47°
2026-04-25 13:53 32.93529 -80.32348 32933 ft 473 kts 47°
2026-04-25 13:54 32.97857 -80.26453 32939 ft 473 kts 47°
2026-04-25 13:54 33.02192 -80.20538 32938 ft 473 kts 47°
2026-04-25 13:55 33.06498 -80.14656 32932 ft 473 kts 48°
2026-04-25 13:55 33.10824 -80.08735 32950 ft 473 kts 48°
2026-04-25 13:56 33.15149 -80.02805 32948 ft 473 kts 48°
2026-04-25 13:56 33.19471 -79.96870 32946 ft 473 kts 48°
2026-04-25 13:57 33.23784 -79.90937 32943 ft 473 kts 48°
2026-04-25 13:57 33.28094 -79.85001 32931 ft 473 kts 48°
2026-04-25 13:58 33.32404 -79.79054 32942 ft 473 kts 48°
2026-04-25 13:58 33.36719 -79.73093 32933 ft 473 kts 49°
2026-04-25 13:59 33.41000 -79.67166 32933 ft 473 kts 48°
2026-04-25 13:59 33.45306 -79.61193 32935 ft 473 kts 49°
2026-04-25 14:00 33.48885 -79.56222 32934 ft 473 kts 49°
2026-04-25 14:00 33.53906 -79.49238 32930 ft 474 kts 48°
2026-04-25 14:01 33.58200 -79.43254 32930 ft 474 kts 48°
2026-04-25 14:01 33.62507 -79.37242 32938 ft 474 kts 49°
2026-04-25 14:02 33.66796 -79.31245 32935 ft 473 kts 49°
2026-04-25 14:02 33.71031 -79.25317 32939 ft 473 kts 49°
2026-04-25 14:03 33.75314 -79.19317 32938 ft 474 kts 49°
2026-04-25 14:03 33.79620 -79.13277 32944 ft 475 kts 49°
2026-04-25 14:04 33.83907 -79.07251 32939 ft 474 kts 49°
2026-04-25 14:04 33.88200 -79.01210 32923 ft 473 kts 49°
2026-04-25 14:05 33.92466 -78.95192 32918 ft 473 kts 49°
2026-04-25 14:05 33.96734 -78.89160 32930 ft 472 kts 49°
2026-04-25 14:06 34.00976 -78.83157 32934 ft 475 kts 49°
2026-04-25 14:06 34.05257 -78.77089 32925 ft 475 kts 49°
2026-04-25 14:07 34.09541 -78.71006 32937 ft 475 kts 49°
2026-04-25 14:07 34.13819 -78.64922 32945 ft 472 kts 49°
2026-04-25 14:08 34.18066 -78.58870 32947 ft 473 kts 49°
2026-04-25 14:08 34.22299 -78.52828 32942 ft 476 kts 49°
2026-04-25 14:09 34.26048 -78.46220 32938 ft 478 kts 60°
2026-04-25 14:09 34.28887 -78.38956 32925 ft 478 kts 64°
2026-04-25 14:10 34.31222 -78.32897 32924 ft 478 kts 64°
2026-04-25 14:10 34.34509 -78.24360 32930 ft 478 kts 64°
2026-04-25 14:11 34.37291 -78.17100 32929 ft 479 kts 64°
2026-04-25 14:11 34.40089 -78.09769 32939 ft 479 kts 64°
2026-04-25 14:12 34.42885 -78.02437 32910 ft 480 kts 64°
2026-04-25 14:12 34.45682 -77.95082 32918 ft 481 kts 64°
2026-04-25 14:13 34.48471 -77.87728 32936 ft 479 kts 64°
2026-04-25 14:13 34.51248 -77.80388 32945 ft 479 kts 64°
2026-04-25 14:14 34.54026 -77.73053 32937 ft 479 kts 63°
2026-04-25 14:14 34.57561 -77.66255 32921 ft 477 kts 50°
2026-04-25 14:15 34.62180 -77.60527 32909 ft 475 kts 42°
2026-04-25 14:15 34.66989 -77.55020 32923 ft 476 kts 42°
2026-04-25 14:16 34.71794 -77.49478 32928 ft 476 kts 43°
2026-04-25 14:16 34.76589 -77.43953 32923 ft 476 kts 43°
2026-04-25 14:17 34.81398 -77.38399 32929 ft 476 kts 42°
2026-04-25 14:17 34.86210 -77.32843 32919 ft 477 kts 42°
2026-04-25 14:18 34.91021 -77.27274 32928 ft 478 kts 42°
2026-04-25 14:18 34.95847 -77.21685 32937 ft 478 kts 43°
2026-04-25 14:19 35.00667 -77.16078 32940 ft 478 kts 42°
2026-04-25 14:19 35.05451 -77.10510 32938 ft 478 kts 43°
2026-04-25 14:20 35.10261 -77.04904 32933 ft 478 kts 42°
2026-04-25 14:20 35.15072 -76.99289 32933 ft 478 kts 43°
2026-04-25 14:21 35.19885 -76.93660 32910 ft 478 kts 42°
2026-04-25 14:21 35.24705 -76.88013 32905 ft 478 kts 43°
2026-04-25 14:22 35.29485 -76.82401 32914 ft 478 kts 42°
2026-04-25 14:22 35.34300 -76.76740 32906 ft 478 kts 43°
2026-04-25 14:23 35.39070 -76.71123 32912 ft 477 kts 42°
2026-04-25 14:23 35.43846 -76.65489 32903 ft 477 kts 43°
2026-04-25 14:24 35.47855 -76.60753 32906 ft 477 kts 43°
2026-04-25 14:24 35.52619 -76.55112 32889 ft 479 kts 42°
2026-04-25 14:25 35.57439 -76.49399 32898 ft 480 kts 42°
2026-04-25 14:25 35.62376 -76.43949 32897 ft 478 kts 34°
2026-04-25 14:26 35.67809 -76.39312 32897 ft 477 kts 33°
2026-04-25 14:26 35.73268 -76.34611 32901 ft 478 kts 32°
2026-04-25 14:27 35.78709 -76.29915 32890 ft 478 kts 32°
2026-04-25 14:27 35.84153 -76.25213 32896 ft 478 kts 32°
2026-04-25 14:28 35.89600 -76.20503 32902 ft 479 kts 32°
2026-04-25 14:28 35.95068 -76.15764 32905 ft 479 kts 32°
2026-04-25 14:29 36.00494 -76.11052 32902 ft 479 kts 32°
2026-04-25 14:29 36.05946 -76.06313 32901 ft 479 kts 32°
2026-04-25 14:30 36.11391 -76.01570 32901 ft 479 kts 32°
2026-04-25 14:30 36.19553 -75.94445 32890 ft 479 kts 32°
2026-04-25 14:31 36.24994 -75.89686 32892 ft 479 kts 32°
2026-04-25 14:31 36.30638 -75.85346 32890 ft 476 kts 26°
2026-04-25 14:32 36.36412 -75.81293 32895 ft 476 kts 26°
2026-04-25 14:32 36.42143 -75.77241 32894 ft 477 kts 26°
2026-04-25 14:33 36.47904 -75.73166 32902 ft 476 kts 26°
2026-04-25 14:33 36.53659 -75.69089 32884 ft 476 kts 26°
2026-04-25 14:34 36.59401 -75.65014 32885 ft 476 kts 26°
2026-04-25 14:34 36.65155 -75.60923 32886 ft 476 kts 26°
2026-04-25 14:35 36.70906 -75.56827 32888 ft 476 kts 26°
2026-04-25 14:35 36.76651 -75.52729 32888 ft 476 kts 26°
2026-04-25 14:36 36.82394 -75.48625 32906 ft 476 kts 26°
2026-04-25 14:36 36.88155 -75.44499 32894 ft 476 kts 25°
2026-04-25 14:37 36.93906 -75.40376 32905 ft 476 kts 26°
2026-04-25 14:37 36.99624 -75.36267 32907 ft 476 kts 26°
2026-04-25 14:38 37.05371 -75.32131 32904 ft 476 kts 25°
2026-04-25 14:38 37.11113 -75.27992 32905 ft 476 kts 25°
2026-04-25 14:39 37.16855 -75.23846 32911 ft 476 kts 25°
2026-04-25 14:39 37.22563 -75.19716 32911 ft 476 kts 25°
2026-04-25 14:40 37.28317 -75.15545 32921 ft 477 kts 25°
2026-04-25 14:40 37.34068 -75.11369 32919 ft 477 kts 25°
2026-04-25 14:41 37.39803 -75.07198 32923 ft 477 kts 25°
2026-04-25 14:41 37.45548 -75.03012 32936 ft 476 kts 25°
2026-04-25 14:42 37.50300 -74.99544 32933 ft 476 kts 25°
2026-04-25 14:42 37.57000 -74.94644 32930 ft 475 kts 25°
2026-04-25 14:43 37.62701 -74.90470 32933 ft 475 kts 25°
2026-04-25 14:43 37.68514 -74.86509 32944 ft 473 kts 21°
2026-04-25 14:44 37.74372 -74.82830 32937 ft 473 kts 21°
2026-04-25 14:44 37.80278 -74.79050 32938 ft 473 kts 22°
2026-04-25 14:45 37.86132 -74.75256 32947 ft 473 kts 22°
2026-04-25 14:45 37.91966 -74.71461 32948 ft 474 kts 21°
2026-04-25 14:46 37.97852 -74.67631 32951 ft 474 kts 21°
2026-04-25 14:46 38.03718 -74.63807 32960 ft 474 kts 21°
2026-04-25 14:47 38.08590 -74.60625 32960 ft 474 kts 21°
2026-04-25 14:47 38.15425 -74.56151 32966 ft 475 kts 21°
2026-04-25 14:48 38.21321 -74.52286 32976 ft 475 kts 21°
2026-04-25 14:48 38.27184 -74.48434 32986 ft 475 kts 21°
2026-04-25 14:49 38.33061 -74.44563 32975 ft 476 kts 21°
2026-04-25 14:49 38.38954 -74.40678 32986 ft 476 kts 21°
2026-04-25 14:50 38.44834 -74.36797 32994 ft 477 kts 21°
2026-04-25 14:50 38.50707 -74.32909 33014 ft 476 kts 21°
2026-04-25 14:51 38.56605 -74.28998 33012 ft 476 kts 21°
2026-04-25 14:51 38.62458 -74.25112 33013 ft 475 kts 21°
2026-04-25 14:52 38.68312 -74.21217 33015 ft 475 kts 21°
2026-04-25 14:52 38.73219 -74.17946 33035 ft 475 kts 20°
2026-04-25 14:53 38.80045 -74.13388 33009 ft 476 kts 20°
2026-04-25 14:53 38.85919 -74.09457 33030 ft 476 kts 20°
2026-04-25 14:54 38.91784 -74.05524 33035 ft 475 kts 20°
2026-04-25 14:54 38.97653 -74.01583 33027 ft 476 kts 20°
2026-04-25 14:55 39.03312 -73.97029 33043 ft 483 kts 28°
2026-04-25 14:55 39.08808 -73.92066 33049 ft 482 kts 27°
2026-04-25 14:56 39.14275 -73.87157 33057 ft 483 kts 27°
2026-04-25 14:56 39.19791 -73.82182 33049 ft 483 kts 27°
2026-04-25 14:57 39.25301 -73.77199 33059 ft 483 kts 27°
2026-04-25 14:57 39.30801 -73.72214 33057 ft 483 kts 28°
2026-04-25 14:58 39.36303 -73.67218 33060 ft 483 kts 27°
2026-04-25 14:58 39.41797 -73.62217 33080 ft 482 kts 27°
2026-04-25 14:59 39.47254 -73.57243 33075 ft 482 kts 27°
2026-04-25 14:59 39.52721 -73.52251 33075 ft 481 kts 27°
2026-04-25 15:00 39.58201 -73.47232 33076 ft 481 kts 27°
2026-04-25 15:00 39.63663 -73.42225 33072 ft 481 kts 27°
2026-04-25 15:01 39.69131 -73.37203 33067 ft 481 kts 27°
2026-04-25 15:01 39.74590 -73.32178 33072 ft 481 kts 27°
2026-04-25 15:02 39.79889 -73.26905 33109 ft 488 kts 35°
2026-04-25 15:02 39.84469 -73.20171 33102 ft 501 kts 47°
2026-04-25 15:03 39.88505 -73.12844 33083 ft 500 kts 46°
2026-04-25 15:03 39.92588 -73.05504 33094 ft 500 kts 46°
2026-04-25 15:04 39.96668 -72.98133 33089 ft 500 kts 47°
2026-04-25 15:04 40.00709 -72.90804 33103 ft 500 kts 46°
2026-04-25 15:05 40.04759 -72.83442 33096 ft 499 kts 46°
2026-04-25 15:06 40.10830 -72.72373 33101 ft 499 kts 46°
2026-04-25 15:06 40.14863 -72.64999 33104 ft 498 kts 46°
2026-04-25 15:07 40.18888 -72.57619 33124 ft 498 kts 46°
2026-04-25 15:07 40.22908 -72.50232 33136 ft 498 kts 46°
2026-04-25 15:08 40.26921 -72.42846 33120 ft 498 kts 46°
2026-04-25 15:08 40.30900 -72.35503 33123 ft 497 kts 46°
2026-04-25 15:09 40.34243 -72.29319 33113 ft 497 kts 46°
2026-04-25 15:09 40.40240 -72.18194 33140 ft 497 kts 46°
2026-04-25 15:10 40.44197 -72.10831 33132 ft 496 kts 46°
2026-04-25 15:11 40.50000 -71.99542 33126 ft 503 kts 53°
2026-04-25 15:11 40.52879 -71.91091 33128 ft 510 kts 59°
2026-04-25 15:12 40.57043 -71.78195 33138 ft 507 kts 58°
2026-04-25 15:12 40.59338 -71.71079 33136 ft 507 kts 59°
2026-04-25 15:13 40.63896 -71.56857 33145 ft 507 kts 59°
2026-04-25 15:14 40.66612 -71.48330 33146 ft 502 kts 58°
2026-04-25 15:14 40.69322 -71.39817 33148 ft 501 kts 58°
2026-04-25 15:15 40.71997 -71.31380 33144 ft 501 kts 58°
2026-04-25 15:15 40.74691 -71.22874 33146 ft 501 kts 58°
2026-04-25 15:16 40.77350 -71.14426 33142 ft 501 kts 58°
2026-04-25 15:16 40.81349 -71.01664 33139 ft 502 kts 59°
2026-04-25 15:17 40.84812 -70.88469 33138 ft 507 kts 62°
2026-04-25 15:18 40.87112 -70.79667 33147 ft 506 kts 61°
2026-04-25 15:18 40.90550 -70.66458 33139 ft 506 kts 62°
2026-04-25 15:19 40.92446 -70.59127 33142 ft 506 kts 62°
2026-04-25 15:19 40.95083 -70.48877 33150 ft 506 kts 61°
2026-04-25 15:20 40.97345 -70.40056 33142 ft 506 kts 61°
2026-04-25 15:20 40.99602 -70.31225 33146 ft 506 kts 61°
2026-04-25 15:21 41.01851 -70.22393 33136 ft 506 kts 61°
2026-04-25 15:21 41.04078 -70.13603 33148 ft 505 kts 61°
2026-04-25 15:22 41.06317 -70.04748 33148 ft 505 kts 61°
2026-04-25 15:22 41.08542 -69.95915 33144 ft 505 kts 61°
2026-04-25 15:23 41.10749 -69.87117 33141 ft 504 kts 61°
2026-04-25 15:23 41.12961 -69.78263 33145 ft 504 kts 61°
2026-04-25 15:24 41.15146 -69.69486 33140 ft 504 kts 61°
2026-04-25 15:24 41.16975 -69.62118 33135 ft 504 kts 61°
2026-04-25 15:25 41.19535 -69.51761 33174 ft 504 kts 60°
2026-04-25 15:25 41.21712 -69.42907 33153 ft 504 kts 60°
2026-04-25 15:26 41.23878 -69.34081 33134 ft 503 kts 60°
2026-04-25 15:26 41.26038 -69.25245 33127 ft 503 kts 61°
2026-04-25 15:27 41.28194 -69.16386 33148 ft 503 kts 60°
2026-04-25 15:28 41.31408 -69.03114 33138 ft 502 kts 60°
2026-04-25 15:28 41.33541 -68.94267 33132 ft 501 kts 60°
2026-04-25 15:29 41.35663 -68.85432 33157 ft 501 kts 60°
2026-04-25 15:29 41.37770 -68.76619 33129 ft 500 kts 60°
2026-04-25 15:30 41.39525 -68.69259 33109 ft 500 kts 60°
2026-04-25 15:30 41.41966 -68.58982 33115 ft 500 kts 60°
2026-04-25 15:31 41.44055 -68.50150 33127 ft 500 kts 59°
2026-04-25 15:31 41.46138 -68.41311 33117 ft 499 kts 59°
2026-04-25 15:32 41.48201 -68.32522 33107 ft 499 kts 59°
2026-04-25 15:32 41.50270 -68.23671 33107 ft 499 kts 59°
2026-04-25 15:33 41.53361 -68.10384 33115 ft 500 kts 59°
2026-04-25 15:33 41.55413 -68.01515 33107 ft 500 kts 60°
2026-04-25 15:34 41.57458 -67.92645 33104 ft 500 kts 60°
2026-04-25 15:34 41.59156 -67.85254 33104 ft 500 kts 60°
2026-04-25 15:35 41.62539 -67.70459 33106 ft 501 kts 60°
2026-04-25 15:36 41.65579 -67.57073 33096 ft 501 kts 60°
2026-04-25 15:36 41.67601 -67.48131 33100 ft 501 kts 61°
2026-04-25 15:37 41.69606 -67.39219 33090 ft 501 kts 61°
2026-04-25 15:37 41.71601 -67.30312 33095 ft 501 kts 61°
2026-04-25 15:38 41.73594 -67.21395 33128 ft 502 kts 61°
2026-04-25 15:38 41.75594 -67.12421 33085 ft 502 kts 62°
2026-04-25 15:39 41.77586 -67.03442 33080 ft 502 kts 62°
2026-04-25 15:39 41.79879 -66.94735 33067 ft 491 kts 56°
2026-04-25 15:40 41.81629 -66.89077 33110 ft 491 kts 56°
2026-04-25 15:40 41.85101 -66.77841 33071 ft 492 kts 57°
2026-04-25 15:41 41.87699 -66.69352 33069 ft 492 kts 57°
2026-04-25 15:41 41.90296 -66.60827 33062 ft 492 kts 57°
2026-04-25 15:42 41.92885 -66.52321 33075 ft 492 kts 58°
2026-04-25 15:42 41.95454 -66.43831 33063 ft 492 kts 59°
2026-04-25 15:43 41.98017 -66.35312 33060 ft 492 kts 59°
2026-04-25 15:43 42.00577 -66.26770 33061 ft 492 kts 59°
2026-04-25 15:44 42.03131 -66.18228 33056 ft 492 kts 60°
2026-04-25 15:44 42.05679 -66.09678 33057 ft 491 kts 60°
2026-04-25 15:45 42.08194 -66.01210 33046 ft 490 kts 60°
2026-04-25 15:45 42.09880 -65.95511 33040 ft 490 kts 60°
2026-04-25 15:46 42.13226 -65.84176 33039 ft 489 kts 61°
2026-04-25 15:46 42.15731 -65.75652 33035 ft 488 kts 61°
2026-04-25 15:47 42.18227 -65.67131 33026 ft 488 kts 61°
2026-04-25 15:47 42.20713 -65.58619 33030 ft 488 kts 62°
2026-04-25 15:48 42.23194 -65.50091 33022 ft 487 kts 62°
2026-04-25 15:48 42.25647 -65.41635 33018 ft 486 kts 62°
2026-04-25 15:49 42.28105 -65.33138 33009 ft 485 kts 63°
2026-04-25 15:49 42.30550 -65.24652 33026 ft 484 kts 63°
2026-04-25 15:50 42.32972 -65.16207 33010 ft 480 kts 63°
2026-04-25 15:50 42.35391 -65.07761 33003 ft 481 kts 63°
2026-04-25 15:51 42.36987 -65.02171 32999 ft 481 kts 63°
2026-04-25 15:51 42.40199 -64.90883 32993 ft 480 kts 64°
2026-04-25 15:52 42.42577 -64.82490 32997 ft 480 kts 64°
2026-04-25 15:52 42.44963 -64.74041 32989 ft 480 kts 64°
2026-04-25 15:53 42.47346 -64.65581 32991 ft 481 kts 64°
2026-04-25 15:53 42.49724 -64.57111 32990 ft 481 kts 65°
2026-04-25 15:54 42.52096 -64.48619 32990 ft 481 kts 65°
2026-04-25 15:54 42.54459 -64.40132 32986 ft 481 kts 65°
2026-04-25 15:55 42.56420 -64.33071 32984 ft 481 kts 65°
2026-04-25 15:55 42.58772 -64.24574 32990 ft 481 kts 65°
2026-04-25 15:56 42.61116 -64.16071 32987 ft 480 kts 66°
2026-04-25 15:56 42.63452 -64.07575 32975 ft 479 kts 66°
2026-04-25 15:57 42.65765 -63.99137 32966 ft 479 kts 66°
2026-04-25 15:57 42.68084 -63.90646 32966 ft 479 kts 66°
2026-04-25 15:58 42.70394 -63.82169 32960 ft 474 kts 66°
2026-04-25 15:58 42.72672 -63.73762 32948 ft 475 kts 66°
2026-04-25 15:59 42.74937 -63.65380 32977 ft 474 kts 66°
2026-04-25 15:59 42.77188 -63.57017 32944 ft 469 kts 66°
2026-04-25 16:00 42.79073 -63.49999 32946 ft 470 kts 66°
2026-04-25 16:00 42.81663 -63.40316 32938 ft 468 kts 67°
2026-04-25 16:01 42.83889 -63.31971 32936 ft 468 kts 67°
2026-04-25 16:01 42.86105 -63.23628 32931 ft 468 kts 67°
2026-04-25 16:02 42.88315 -63.15279 32925 ft 468 kts 67°
2026-04-25 16:02 42.90515 -63.06942 32927 ft 464 kts 67°
2026-04-25 16:03 42.92678 -62.98712 32920 ft 465 kts 67°
2026-04-25 16:03 42.94856 -62.90400 32909 ft 465 kts 67°
2026-04-25 16:04 42.97034 -62.82062 32905 ft 465 kts 67°
2026-04-25 16:04 42.99192 -62.73764 32907 ft 464 kts 67°
2026-04-25 16:05 43.01342 -62.65476 32904 ft 464 kts 68°
2026-04-25 16:06 43.04560 -62.53004 32903 ft 463 kts 67°
2026-04-25 16:06 43.06697 -62.44691 32891 ft 462 kts 68°
2026-04-25 16:07 43.08825 -62.36382 32887 ft 462 kts 67°
2026-04-25 16:07 43.10949 -62.28065 32878 ft 462 kts 68°
2026-04-25 16:08 43.13047 -62.19818 32872 ft 462 kts 68°
2026-04-25 16:08 43.15152 -62.11513 32860 ft 462 kts 68°
2026-04-25 16:09 43.17250 -62.03206 32862 ft 462 kts 68°
2026-04-25 16:09 43.19346 -61.94878 32869 ft 461 kts 68°
2026-04-25 16:10 43.21427 -61.86577 32851 ft 460 kts 68°
2026-04-25 16:10 43.23502 -61.78271 32846 ft 460 kts 68°
2026-04-25 16:11 43.25571 -61.69964 32847 ft 460 kts 68°
2026-04-25 16:11 43.27618 -61.61713 32837 ft 460 kts 68°
2026-04-25 16:12 43.29674 -61.53397 32838 ft 460 kts 68°
2026-04-25 16:12 43.31724 -61.45075 32850 ft 459 kts 68°
2026-04-25 16:13 43.33754 -61.36798 32827 ft 457 kts 68°
2026-04-25 16:13 43.35785 -61.28500 32828 ft 458 kts 68°
2026-04-25 16:14 43.37795 -61.20249 32818 ft 457 kts 68°
2026-04-25 16:14 43.39816 -61.11928 32818 ft 459 kts 69°
2026-04-25 16:15 43.41834 -61.03587 32811 ft 459 kts 69°
2026-04-25 16:15 43.43843 -60.95240 32802 ft 459 kts 68°
2026-04-25 16:16 43.45841 -60.86928 32802 ft 460 kts 69°
2026-04-25 16:16 43.47837 -60.78587 32818 ft 460 kts 69°
2026-04-25 16:17 43.49823 -60.70254 32790 ft 457 kts 69°
2026-04-25 16:17 43.51808 -60.61892 32786 ft 458 kts 69°
2026-04-25 16:18 43.53784 -60.53541 32775 ft 457 kts 69°
2026-04-25 16:18 43.55740 -60.45240 32787 ft 458 kts 69°
2026-04-25 16:19 43.57705 -60.36881 32781 ft 459 kts 69°
2026-04-25 16:19 43.59658 -60.28530 32777 ft 455 kts 69°
2026-04-25 16:20 43.62568 -60.16034 32771 ft 456 kts 69°
2026-04-25 16:21 43.65469 -60.03503 32760 ft 456 kts 69°
2026-04-25 16:21 43.67392 -59.95158 32770 ft 456 kts 69°
2026-04-25 16:22 43.69304 -59.86831 32755 ft 457 kts 69°
2026-04-25 16:22 43.71217 -59.78465 32744 ft 456 kts 70°
2026-04-25 16:23 43.73131 -59.70067 32752 ft 456 kts 70°
2026-04-25 16:23 43.75028 -59.61705 32734 ft 456 kts 70°
2026-04-25 16:24 43.76920 -59.53337 32737 ft 456 kts 70°
2026-04-25 16:24 43.78805 -59.44965 32724 ft 456 kts 70°
2026-04-25 16:25 43.80686 -59.36581 32719 ft 455 kts 70°
2026-04-25 16:25 43.82561 -59.28192 32717 ft 455 kts 70°
2026-04-25 16:26 43.84429 -59.19799 32710 ft 455 kts 70°
2026-04-25 16:26 43.86288 -59.11414 32707 ft 455 kts 70°
2026-04-25 16:27 43.88138 -59.03037 32708 ft 454 kts 70°
2026-04-25 16:27 43.89970 -58.94710 32694 ft 454 kts 70°
2026-04-25 16:28 43.91806 -58.86329 32692 ft 454 kts 70°
2026-04-25 16:28 43.93634 -58.77955 32684 ft 453 kts 70°
2026-04-25 16:29 43.95459 -58.69559 32682 ft 453 kts 70°
2026-04-25 16:29 43.97275 -58.61175 32678 ft 453 kts 70°
2026-04-25 16:30 43.98779 -58.54202 32675 ft 453 kts 70°
2026-04-25 16:30 44.00874 -58.44454 32665 ft 453 kts 70°
2026-04-25 16:31 44.02674 -58.36039 32666 ft 453 kts 70°
2026-04-25 16:31 44.04467 -58.27626 32672 ft 453 kts 70°
2026-04-25 16:32 44.06248 -58.19230 32661 ft 453 kts 70°
2026-04-25 16:32 44.08027 -58.10815 32654 ft 453 kts 70°
2026-04-25 16:33 44.09800 -58.02395 32653 ft 453 kts 70°
2026-04-25 16:33 44.11566 -57.93967 32638 ft 453 kts 70°
2026-04-25 16:34 44.13314 -57.85598 32638 ft 453 kts 70°
2026-04-25 16:34 44.15069 -57.77159 32629 ft 453 kts 70°
2026-04-25 16:35 44.16815 -57.68725 32628 ft 453 kts 71°
2026-04-25 16:35 44.18550 -57.60310 32628 ft 453 kts 71°
2026-04-25 16:36 44.20287 -57.51854 32625 ft 453 kts 71°
2026-04-25 16:36 44.22017 -57.43398 32621 ft 458 kts 71°
2026-04-25 16:37 44.23780 -57.34751 32615 ft 465 kts 71°
2026-04-25 16:37 44.25529 -57.26118 32611 ft 464 kts 71°
2026-04-25 16:38 44.27276 -57.17463 32615 ft 464 kts 71°
2026-04-25 16:38 44.29017 -57.08798 32608 ft 464 kts 71°
2026-04-25 16:39 44.30468 -57.01556 32594 ft 466 kts 71°
2026-04-25 16:39 44.32502 -56.91355 32602 ft 468 kts 71°
2026-04-25 16:40 44.34237 -56.82608 32595 ft 467 kts 71°
2026-04-25 16:40 44.35675 -56.75322 32584 ft 466 kts 71°
2026-04-25 16:41 44.37395 -56.66586 32583 ft 467 kts 71°
2026-04-25 16:41 44.39973 -56.53422 32570 ft 469 kts 71°
2026-04-25 16:42 44.41690 -56.44625 32562 ft 468 kts 71°
2026-04-25 16:42 44.43396 -56.35860 32559 ft 468 kts 71°
2026-04-25 16:43 44.45100 -56.27056 32541 ft 468 kts 71°
2026-04-25 16:43 44.46797 -56.18251 32558 ft 468 kts 71°
2026-04-25 16:44 44.48451 -56.09482 32538 ft 469 kts 73°
2026-04-25 16:44 44.49636 -56.00464 32534 ft 472 kts 78°
2026-04-25 16:45 44.50605 -55.91363 32525 ft 471 kts 77°
2026-04-25 16:45 44.51626 -55.82304 32518 ft 471 kts 77°
2026-04-25 16:46 44.52628 -55.73221 32523 ft 472 kts 77°
2026-04-25 16:46 44.53451 -55.65643 32532 ft 472 kts 78°
2026-04-25 16:47 44.54589 -55.55049 32505 ft 473 kts 78°
2026-04-25 16:47 44.55563 -55.45913 32501 ft 473 kts 78°
2026-04-25 16:48 44.56529 -55.36782 32505 ft 473 kts 78°
2026-04-25 16:48 44.57487 -55.27650 32506 ft 473 kts 78°
2026-04-25 16:49 44.58432 -55.18583 32479 ft 473 kts 78°
2026-04-25 16:49 44.59377 -55.09429 32480 ft 474 kts 78°
2026-04-25 16:50 44.60315 -55.00268 32477 ft 474 kts 78°
2026-04-25 16:50 44.61247 -54.91100 32477 ft 475 kts 78°
2026-04-25 16:51 44.62172 -54.81925 32475 ft 475 kts 78°
2026-04-25 16:51 44.62938 -54.74272 32473 ft 476 kts 78°
2026-04-25 16:52 44.64000 -54.63560 32463 ft 476 kts 78°
2026-04-25 16:52 44.64906 -54.54337 32455 ft 477 kts 78°
2026-04-25 16:53 44.66250 -54.40537 32447 ft 477 kts 78°
2026-04-25 16:54 44.67141 -54.31273 32446 ft 477 kts 78°
2026-04-25 16:54 44.68023 -54.22024 32439 ft 478 kts 79°
2026-04-25 16:55 44.68896 -54.12797 32434 ft 478 kts 79°
2026-04-25 16:55 44.69763 -54.03537 32439 ft 478 kts 79°
2026-04-25 16:56 44.70624 -53.94264 32405 ft 478 kts 79°
2026-04-25 16:56 44.71477 -53.84986 32392 ft 479 kts 79°
2026-04-25 16:57 44.72325 -53.75692 32409 ft 479 kts 79°
2026-04-25 16:57 44.73166 -53.66389 32423 ft 479 kts 79°
2026-04-25 16:58 44.73997 -53.57094 32401 ft 479 kts 79°
2026-04-25 16:58 44.74817 -53.47851 32394 ft 480 kts 79°
2026-04-25 16:59 44.75640 -53.38475 32381 ft 480 kts 79°
2026-04-25 16:59 44.76448 -53.29193 32384 ft 481 kts 79°
2026-04-25 17:00 44.77253 -53.19850 32378 ft 481 kts 79°
2026-04-25 17:00 44.78046 -53.10568 32385 ft 481 kts 79°
2026-04-25 17:01 44.78836 -53.01220 32373 ft 481 kts 79°
2026-04-25 17:01 44.79620 -52.91857 32374 ft 482 kts 80°
2026-04-25 17:02 44.80396 -52.82486 32368 ft 482 kts 80°
2026-04-25 17:02 44.81165 -52.73111 32365 ft 482 kts 80°
2026-04-25 17:03 44.81927 -52.63721 32369 ft 482 kts 80°
2026-04-25 17:03 44.82675 -52.54402 32367 ft 482 kts 80°
2026-04-25 17:04 44.83422 -52.44999 32368 ft 482 kts 80°
2026-04-25 17:04 44.84164 -52.35586 32342 ft 484 kts 80°
2026-04-25 17:05 44.84896 -52.26172 32346 ft 484 kts 80°
2026-04-25 17:05 44.85982 -52.12021 32352 ft 484 kts 81°
2026-04-25 17:06 44.86699 -52.02572 32321 ft 485 kts 81°
2026-04-25 17:06 44.87404 -51.93163 32325 ft 485 kts 81°
2026-04-25 17:07 44.88113 -51.83687 32313 ft 487 kts 81°
2026-04-25 17:07 44.88730 -51.74157 32309 ft 488 kts 82°
2026-04-25 17:08 44.89450 -51.64634 32317 ft 488 kts 81°
2026-04-25 17:08 44.90153 -51.55132 32306 ft 489 kts 82°
2026-04-25 17:09 44.90825 -51.45592 32310 ft 490 kts 82°
2026-04-25 17:09 44.91489 -51.35962 32304 ft 490 kts 82°
2026-04-25 17:10 44.92145 -51.26389 32308 ft 494 kts 82°
2026-04-25 17:10 44.92798 -51.16696 32301 ft 495 kts 82°
2026-04-25 17:11 44.93442 -51.07047 32307 ft 495 kts 83°
2026-04-25 17:11 44.94077 -50.97370 32296 ft 495 kts 83°
2026-04-25 17:12 44.94701 -50.87708 32301 ft 495 kts 83°
2026-04-25 17:12 44.95321 -50.78016 32292 ft 495 kts 83°
2026-04-25 17:13 44.95733 -50.71512 32298 ft 500 kts 84°
2026-04-25 17:13 44.96552 -50.58397 32290 ft 504 kts 84°
2026-04-25 17:14 44.97159 -50.48524 32294 ft 504 kts 84°
2026-04-25 17:14 44.97750 -50.38728 32293 ft 504 kts 84°
2026-04-25 17:15 44.98336 -50.28877 32284 ft 505 kts 84°
2026-04-25 17:15 44.98918 -50.19010 32289 ft 506 kts 85°
2026-04-25 17:16 44.99493 -50.09098 32278 ft 507 kts 85°
2026-04-25 17:16 45.00374 -49.99239 32290 ft 507 kts 76°
2026-04-25 17:17 45.02576 -49.89770 32267 ft 507 kts 70°
2026-04-25 17:17 45.04926 -49.80361 32279 ft 507 kts 70°
2026-04-25 17:18 45.07262 -49.70982 32282 ft 510 kts 70°
2026-04-25 17:18 45.09617 -49.61535 32297 ft 509 kts 70°
2026-04-25 17:19 45.11960 -49.52099 32285 ft 509 kts 71°
2026-04-25 17:19 45.14298 -49.42641 32274 ft 510 kts 71°
2026-04-25 17:20 45.16636 -49.33117 32278 ft 511 kts 71°
2026-04-25 17:20 45.18958 -49.23615 32288 ft 513 kts 72°
2026-04-25 17:21 45.21286 -49.14045 32282 ft 515 kts 72°
2026-04-25 17:21 45.23608 -49.04458 32281 ft 514 kts 72°
2026-04-25 17:22 45.25160 -48.98033 32265 ft 515 kts 72°
2026-04-25 17:22 45.28234 -48.85252 32274 ft 513 kts 72°
2026-04-25 17:23 45.30525 -48.75660 32276 ft 513 kts 72°
2026-04-25 17:23 45.32815 -48.66043 32272 ft 513 kts 72°
2026-04-25 17:24 45.35094 -48.56439 32293 ft 515 kts 72°
2026-04-25 17:24 45.37381 -48.46749 32295 ft 518 kts 73°
2026-04-25 17:25 45.39652 -48.37084 32300 ft 517 kts 73°
2026-04-25 17:25 45.41923 -48.27381 32297 ft 518 kts 73°
2026-04-25 17:26 45.44193 -48.17629 32302 ft 517 kts 73°
2026-04-25 17:26 45.46063 -48.09571 32305 ft 516 kts 73°
2026-04-25 17:27 45.48314 -47.99828 32306 ft 518 kts 73°
2026-04-25 17:27 45.50183 -47.91701 32308 ft 517 kts 74°
2026-04-25 17:28 45.52793 -47.80301 32328 ft 519 kts 73°
2026-04-25 17:28 45.55028 -47.70497 32310 ft 519 kts 74°
2026-04-25 17:29 45.57257 -47.60675 32329 ft 520 kts 74°
2026-04-25 17:29 45.59461 -47.50919 32344 ft 520 kts 75°
2026-04-25 17:30 45.61672 -47.41087 32348 ft 520 kts 75°
2026-04-25 17:30 45.63874 -47.31251 32350 ft 518 kts 75°
2026-04-25 17:31 45.66063 -47.21422 32356 ft 518 kts 75°
2026-04-25 17:31 45.68242 -47.11594 32359 ft 518 kts 75°
2026-04-25 17:32 45.70394 -47.01847 32354 ft 517 kts 75°
2026-04-25 17:32 45.72552 -46.92025 32359 ft 516 kts 75°
2026-04-25 17:33 45.74697 -46.82213 32365 ft 516 kts 75°
2026-04-25 17:33 45.76841 -46.72360 32392 ft 522 kts 76°
2026-04-25 17:34 45.78996 -46.62412 32390 ft 522 kts 76°
2026-04-25 17:34 45.81145 -46.52451 32394 ft 522 kts 76°
2026-04-25 17:35 45.83265 -46.42569 32401 ft 522 kts 76°
2026-04-25 17:35 45.85390 -46.32615 32401 ft 522 kts 76°
2026-04-25 17:36 45.87509 -46.22643 32404 ft 522 kts 76°
2026-04-25 17:36 45.89617 -46.12677 32405 ft 522 kts 77°
2026-04-25 17:37 45.91715 -46.02704 32421 ft 522 kts 77°
2026-04-25 17:37 45.93807 -45.92714 32428 ft 522 kts 77°
2026-04-25 17:38 45.95538 -45.84411 32426 ft 522 kts 77°
2026-04-25 17:38 45.97965 -45.72714 32433 ft 522 kts 77°
2026-04-25 17:39 46.00016 -45.62767 32444 ft 522 kts 77°
2026-04-25 17:39 46.02069 -45.52767 32446 ft 522 kts 77°
2026-04-25 17:40 46.04121 -45.42724 32454 ft 522 kts 77°
2026-04-25 17:40 46.06159 -45.32698 32457 ft 522 kts 78°
2026-04-25 17:41 46.08189 -45.22659 32461 ft 522 kts 78°
2026-04-25 17:41 46.10213 -45.12597 32468 ft 522 kts 78°
2026-04-25 17:42 46.12216 -45.02594 32468 ft 522 kts 78°
2026-04-25 17:42 46.14222 -44.92526 32461 ft 523 kts 78°
2026-04-25 17:43 46.16224 -44.82419 32470 ft 525 kts 79°
2026-04-25 17:43 46.18223 -44.72274 32480 ft 526 kts 79°
2026-04-25 17:44 46.20215 -44.62115 32489 ft 526 kts 79°
2026-04-25 17:44 46.22191 -44.51984 32507 ft 527 kts 79°
2026-04-25 17:45 46.23846 -44.43458 32509 ft 527 kts 79°
2026-04-25 17:45 46.26139 -44.31581 32508 ft 527 kts 79°
2026-04-25 17:46 46.28099 -44.21373 32506 ft 526 kts 79°
2026-04-25 17:46 46.30046 -44.11179 32514 ft 526 kts 79°
2026-04-25 17:47 46.31983 -44.00982 32484 ft 526 kts 80°
2026-04-25 17:47 46.33904 -43.90812 32503 ft 527 kts 80°
2026-04-25 17:48 46.36790 -43.75435 32537 ft 527 kts 80°
2026-04-25 17:49 46.38702 -43.65172 32524 ft 527 kts 80°
2026-04-25 17:49 46.40590 -43.54983 32539 ft 527 kts 80°
2026-04-25 17:50 46.42484 -43.44709 32534 ft 527 kts 81°
2026-04-25 17:50 46.44370 -43.34425 32535 ft 526 kts 81°
2026-04-25 17:51 46.46234 -43.24199 32535 ft 525 kts 81°
2026-04-25 17:51 46.48091 -43.13946 32538 ft 525 kts 81°
2026-04-25 17:52 46.49934 -43.03726 32533 ft 525 kts 81°
2026-04-25 17:52 46.51773 -42.93464 32541 ft 525 kts 82°
2026-04-25 17:53 46.53603 -42.83187 32545 ft 526 kts 82°
2026-04-25 17:53 46.55428 -42.72884 32547 ft 526 kts 82°
2026-04-25 17:54 46.57245 -42.62571 32552 ft 526 kts 82°
2026-04-25 17:54 46.59051 -42.52265 32550 ft 525 kts 82°
2026-04-25 17:55 46.60849 -42.41945 32550 ft 525 kts 82°
2026-04-25 17:55 46.62632 -42.31638 32559 ft 525 kts 82°
2026-04-25 17:56 46.64398 -42.21378 32560 ft 525 kts 82°
2026-04-25 17:56 46.66163 -42.11071 32517 ft 524 kts 83°
2026-04-25 17:57 46.67919 -42.00745 32544 ft 525 kts 83°
2026-04-25 17:57 46.69659 -41.90450 32561 ft 525 kts 83°
2026-04-25 17:58 46.71400 -41.80092 32565 ft 526 kts 83°
2026-04-25 17:58 46.73123 -41.69783 32551 ft 525 kts 83°
2026-04-25 17:59 46.74846 -41.59405 32557 ft 526 kts 83°
2026-04-25 17:59 46.76558 -41.49031 32565 ft 526 kts 83°
2026-04-25 18:00 46.78255 -41.38683 32588 ft 527 kts 83°
2026-04-25 18:00 46.79956 -41.28245 32570 ft 526 kts 83°
2026-04-25 18:01 46.81632 -41.17908 32580 ft 526 kts 83°
2026-04-25 18:01 46.83309 -41.07495 32558 ft 526 kts 84°
2026-04-25 18:02 46.84975 -40.97084 32574 ft 527 kts 84°
2026-04-25 18:02 46.86626 -40.86701 32562 ft 527 kts 84°
2026-04-25 18:03 46.88273 -40.76274 32586 ft 527 kts 84°
2026-04-25 18:03 46.89921 -40.65777 32596 ft 527 kts 84°
2026-04-25 18:04 46.91544 -40.55377 32603 ft 527 kts 84°
2026-04-25 18:04 46.93164 -40.44926 32605 ft 527 kts 84°
2026-04-25 18:05 46.94780 -40.34473 32610 ft 527 kts 84°
2026-04-25 18:05 46.96391 -40.24005 32608 ft 526 kts 84°
2026-04-25 18:06 46.97985 -40.13582 32564 ft 526 kts 84°
2026-04-25 18:06 46.99531 -40.03090 32572 ft 525 kts 87°
2026-04-25 18:07 47.00344 -39.92495 32609 ft 519 kts 96°
2026-04-25 18:07 47.00723 -39.81903 32629 ft 520 kts 94°
2026-04-25 18:08 47.01180 -39.71313 32620 ft 521 kts 94°
2026-04-25 18:08 47.01624 -39.60794 32619 ft 520 kts 94°
2026-04-25 18:09 47.02056 -39.50200 32627 ft 519 kts 94°
2026-04-25 18:09 47.02475 -39.39612 32598 ft 519 kts 94°
2026-04-25 18:10 47.02874 -39.29090 32604 ft 520 kts 94°
2026-04-25 18:10 47.03266 -39.18497 32621 ft 521 kts 94°
2026-04-25 18:11 47.03649 -39.07873 32625 ft 522 kts 94°
2026-04-25 18:11 47.04020 -38.97258 32629 ft 521 kts 94°
2026-04-25 18:12 47.04385 -38.86622 32644 ft 521 kts 94°
2026-04-25 18:12 47.04679 -38.77809 32646 ft 521 kts 94°
2026-04-25 18:13 47.05079 -38.65470 32618 ft 520 kts 94°
2026-04-25 18:13 47.05411 -38.54883 32647 ft 520 kts 94°
2026-04-25 18:14 47.05839 -38.40744 32651 ft 519 kts 94°
2026-04-25 18:14 47.06147 -38.30212 32651 ft 518 kts 94°
2026-04-25 18:15 47.06447 -38.19616 32654 ft 518 kts 94°
2026-04-25 18:15 47.06735 -38.09114 32652 ft 517 kts 94°
2026-04-25 18:16 47.07013 -37.98576 32642 ft 516 kts 94°
2026-04-25 18:17 47.07412 -37.82799 32648 ft 517 kts 94°
2026-04-25 18:17 47.07669 -37.72212 32653 ft 518 kts 94°
2026-04-25 18:18 47.07914 -37.61651 32660 ft 518 kts 94°
2026-04-25 18:18 47.08149 -37.51133 32674 ft 517 kts 94°
2026-04-25 18:19 47.08375 -37.40576 32675 ft 517 kts 94°
2026-04-25 18:19 47.08592 -37.30025 32676 ft 517 kts 94°
2026-04-25 18:20 47.08798 -37.19491 32679 ft 516 kts 94°
2026-04-25 18:20 47.08994 -37.08964 32684 ft 516 kts 95°
2026-04-25 18:21 47.09179 -36.98514 32685 ft 515 kts 94°
2026-04-25 18:21 47.09356 -36.87992 32685 ft 515 kts 94°
2026-04-25 18:22 47.09523 -36.77481 32695 ft 515 kts 95°
2026-04-25 18:22 47.09681 -36.66980 32700 ft 515 kts 95°
2026-04-25 18:23 47.09829 -36.56458 32708 ft 515 kts 95°
2026-04-25 18:23 47.09965 -36.45968 32699 ft 514 kts 94°
2026-04-25 18:24 47.10095 -36.35456 32714 ft 515 kts 94°
2026-04-25 18:24 47.10215 -36.24967 32717 ft 515 kts 94°
2026-04-25 18:25 47.10325 -36.14428 32731 ft 515 kts 94°
2026-04-25 18:25 47.10424 -36.03944 32726 ft 515 kts 94°
2026-04-25 18:26 47.10514 -35.93432 32743 ft 515 kts 94°
2026-04-25 18:26 47.10595 -35.82949 32757 ft 515 kts 95°
2026-04-25 18:27 47.10665 -35.72409 32744 ft 514 kts 94°
2026-04-25 18:27 47.10727 -35.61888 32765 ft 514 kts 94°
2026-04-25 18:28 47.10779 -35.51459 32764 ft 514 kts 94°
2026-04-25 18:28 47.10821 -35.40954 32770 ft 514 kts 95°
2026-04-25 18:29 47.10867 -35.25210 32774 ft 514 kts 95°
2026-04-25 18:30 47.10893 -35.04314 32767 ft 513 kts 95°
2026-04-25 18:30 47.10891 -34.93835 32784 ft 514 kts 94°
2026-04-25 18:31 47.10881 -34.83322 32795 ft 514 kts 95°
2026-04-25 18:31 47.10862 -34.72827 32802 ft 514 kts 95°
2026-04-25 18:32 47.10832 -34.62328 32814 ft 514 kts 95°
2026-04-25 18:32 47.10793 -34.51823 32807 ft 515 kts 95°
2026-04-25 18:33 47.10744 -34.41320 32826 ft 514 kts 95°
2026-04-25 18:33 47.10685 -34.30841 32832 ft 516 kts 95°
2026-04-25 18:34 47.10617 -34.20292 32838 ft 515 kts 95°
2026-04-25 18:34 47.10540 -34.09772 32841 ft 515 kts 95°
2026-04-25 18:35 47.10453 -33.99310 32845 ft 515 kts 95°
2026-04-25 18:35 47.10356 -33.88798 32859 ft 515 kts 95°
2026-04-25 18:36 47.10249 -33.78253 32862 ft 516 kts 95°
2026-04-25 18:36 47.10133 -33.67743 32868 ft 516 kts 95°
2026-04-25 18:37 47.10006 -33.57226 32876 ft 516 kts 95°
2026-04-25 18:37 47.09870 -33.46643 32857 ft 517 kts 95°
2026-04-25 18:38 47.09725 -33.36121 32888 ft 518 kts 95°
2026-04-25 18:38 47.09570 -33.25532 32891 ft 518 kts 95°
2026-04-25 18:39 47.09405 -33.15009 32900 ft 518 kts 95°
2026-04-25 18:39 47.09231 -33.04484 32904 ft 518 kts 95°
2026-04-25 18:40 47.09044 -32.93861 32882 ft 518 kts 95°
2026-04-25 18:40 47.08851 -32.83371 32904 ft 518 kts 95°
2026-04-25 18:41 47.08646 -32.72767 32918 ft 518 kts 95°
2026-04-25 18:41 47.08433 -32.62218 32929 ft 518 kts 95°
2026-04-25 18:42 47.08284 -32.55160 32925 ft 519 kts 95°
2026-04-25 18:42 47.07976 -32.41092 32948 ft 518 kts 95°
2026-04-25 18:43 47.07732 -32.30489 32944 ft 518 kts 95°
2026-04-25 18:43 47.07480 -32.19963 32949 ft 517 kts 95°
2026-04-25 18:44 47.07218 -32.09398 32947 ft 518 kts 95°
2026-04-25 18:44 47.06946 -31.98836 32972 ft 517 kts 95°
2026-04-25 18:45 47.06666 -31.88357 32970 ft 517 kts 96°
2026-04-25 18:45 47.06375 -31.77830 32975 ft 516 kts 96°
2026-04-25 18:46 47.06075 -31.67306 32974 ft 516 kts 96°
2026-04-25 18:46 47.05765 -31.56787 32984 ft 516 kts 96°
2026-04-25 18:47 47.05446 -31.46262 32973 ft 515 kts 96°
2026-04-25 18:47 47.05117 -31.35751 33005 ft 515 kts 96°
2026-04-25 18:48 47.04781 -31.25311 33002 ft 515 kts 96°
2026-04-25 18:48 47.04434 -31.14837 32998 ft 515 kts 96°
2026-04-25 18:49 47.04076 -31.04328 33002 ft 516 kts 96°
2026-04-25 18:49 47.03709 -30.93829 33025 ft 515 kts 96°
2026-04-25 18:50 47.03333 -30.83354 33019 ft 514 kts 96°
2026-04-25 18:50 47.02949 -30.72865 33021 ft 514 kts 96°
2026-04-25 18:51 47.02690 -30.65938 33017 ft 514 kts 96°
2026-04-25 18:51 47.02151 -30.51987 33033 ft 515 kts 96°
2026-04-25 18:52 47.01737 -30.41515 33039 ft 515 kts 96°
2026-04-25 18:52 47.01321 -30.31043 33035 ft 515 kts 96°
2026-04-25 18:53 47.00897 -30.20570 33047 ft 515 kts 96°
2026-04-25 18:53 47.00464 -30.10097 33047 ft 515 kts 96°
2026-04-25 18:54 46.99963 -29.94375 33057 ft 516 kts 90°
2026-04-25 18:55 47.00523 -29.83931 33054 ft 517 kts 87°
2026-04-25 18:55 47.01086 -29.73423 33056 ft 517 kts 88°
2026-04-25 18:56 47.01546 -29.62908 33057 ft 517 kts 89°
2026-04-25 18:56 47.01973 -29.52395 33066 ft 516 kts 89°
2026-04-25 18:57 47.02391 -29.41889 33067 ft 516 kts 89°
2026-04-25 18:57 47.02794 -29.31385 33065 ft 515 kts 89°
2026-04-25 18:58 47.03184 -29.20885 33067 ft 515 kts 89°
2026-04-25 18:58 47.03746 -29.05232 33075 ft 514 kts 89°
2026-04-25 18:59 47.04469 -28.84280 33075 ft 514 kts 89°
2026-04-25 19:00 47.04928 -28.70328 33085 ft 514 kts 89°
2026-04-25 19:01 47.05422 -28.54672 33090 ft 513 kts 89°
2026-04-25 19:01 47.05743 -28.44169 33086 ft 512 kts 89°
2026-04-25 19:02 47.06201 -28.28544 33091 ft 512 kts 89°
2026-04-25 19:03 47.06589 -28.14634 33083 ft 512 kts 89°
2026-04-25 19:03 47.06916 -28.02430 33088 ft 512 kts 89°
2026-04-25 19:04 47.07319 -27.86742 33098 ft 513 kts 89°
2026-04-25 19:05 47.07820 -27.65868 33098 ft 513 kts 89°
2026-04-25 19:06 47.08058 -27.55388 33102 ft 513 kts 89°
2026-04-25 19:06 47.08396 -27.39716 33104 ft 513 kts 89°
2026-04-25 19:07 47.08712 -27.23977 33113 ft 513 kts 89°
2026-04-25 19:08 47.09007 -27.08305 33107 ft 513 kts 89°
2026-04-25 19:09 47.09339 -26.89158 33117 ft 512 kts 89°
2026-04-25 19:10 47.09611 -26.71735 33116 ft 512 kts 89°
2026-04-25 19:10 47.09763 -26.61283 33108 ft 512 kts 89°
2026-04-25 19:11 47.09904 -26.50902 33108 ft 511 kts 89°
2026-04-25 19:11 47.10036 -26.40477 33125 ft 511 kts 89°
2026-04-25 19:12 47.10159 -26.30025 33115 ft 512 kts 89°
2026-04-25 19:12 47.10272 -26.19570 33114 ft 512 kts 89°
2026-04-25 19:13 47.10376 -26.09132 33109 ft 512 kts 89°
2026-04-25 19:13 47.10471 -25.98685 33114 ft 512 kts 89°
2026-04-25 19:14 47.10556 -25.88225 33117 ft 512 kts 89°
2026-04-25 19:14 47.10631 -25.77834 33114 ft 512 kts 89°
2026-04-25 19:15 47.10697 -25.67385 33114 ft 512 kts 89°
2026-04-25 19:15 47.10753 -25.56924 33117 ft 512 kts 89°
2026-04-25 19:16 47.10799 -25.46475 33115 ft 512 kts 89°
2026-04-25 19:16 47.10837 -25.36024 33111 ft 512 kts 89°
2026-04-25 19:17 47.10865 -25.25565 33107 ft 512 kts 89°
2026-04-25 19:17 47.10884 -25.15180 33112 ft 512 kts 89°
2026-04-25 19:18 47.10893 -25.04731 33130 ft 512 kts 89°
2026-04-25 19:18 47.10891 -24.94275 33116 ft 512 kts 89°
2026-04-25 19:19 47.10882 -24.83807 33110 ft 512 kts 89°
2026-04-25 19:19 47.10863 -24.73338 33112 ft 512 kts 89°
2026-04-25 19:20 47.10834 -24.62870 33119 ft 512 kts 89°
2026-04-25 19:20 47.10794 -24.52487 33119 ft 512 kts 89°
2026-04-25 19:21 47.10747 -24.42033 33113 ft 511 kts 89°
2026-04-25 19:21 47.10657 -24.26358 33107 ft 511 kts 89°
2026-04-25 19:22 47.10586 -24.15910 33103 ft 511 kts 89°
2026-04-25 19:23 47.10459 -24.00247 33114 ft 511 kts 89°
2026-04-25 19:23 47.10314 -23.84621 33105 ft 511 kts 89°
2026-04-25 19:24 47.10205 -23.74223 33105 ft 511 kts 89°
2026-04-25 19:25 47.09958 -23.53427 33105 ft 511 kts 88°
2026-04-25 19:25 47.09821 -23.43008 33101 ft 510 kts 89°
2026-04-25 19:26 47.09674 -23.32580 33091 ft 511 kts 88°
2026-04-25 19:26 47.09516 -23.22148 33118 ft 511 kts 88°
2026-04-25 19:27 47.09377 -23.13475 33098 ft 511 kts 88°
2026-04-25 19:27 47.09175 -23.01340 33097 ft 511 kts 88°
2026-04-25 19:28 47.08990 -22.90910 33094 ft 511 kts 88°
2026-04-25 19:28 47.08795 -22.80479 33095 ft 511 kts 88°
2026-04-25 19:29 47.08590 -22.70052 33097 ft 511 kts 88°
2026-04-25 19:29 47.08377 -22.59631 33093 ft 511 kts 88°
2026-04-25 19:30 47.08154 -22.49210 33090 ft 510 kts 88°
2026-04-25 19:30 47.07922 -22.38793 33086 ft 510 kts 88°
2026-04-25 19:31 47.07681 -22.28386 33097 ft 511 kts 88°
2026-04-25 19:31 47.07431 -22.18038 33086 ft 510 kts 88°
2026-04-25 19:32 47.07171 -22.07630 33077 ft 510 kts 88°
2026-04-25 19:32 47.06991 -22.00681 33076 ft 510 kts 89°
2026-04-25 19:33 47.06623 -21.86868 33098 ft 510 kts 89°
2026-04-25 19:33 47.06336 -21.76488 33072 ft 510 kts 89°
2026-04-25 19:34 47.06036 -21.66046 33068 ft 509 kts 89°
2026-04-25 19:34 47.05731 -21.55723 33068 ft 509 kts 89°
2026-04-25 19:35 47.05414 -21.45333 33065 ft 509 kts 89°
2026-04-25 19:35 47.05090 -21.34965 33058 ft 510 kts 90°
2026-04-25 19:36 47.04755 -21.24562 33057 ft 510 kts 90°
2026-04-25 19:36 47.04409 -21.14140 33061 ft 511 kts 90°
2026-04-25 19:37 47.04056 -21.03782 33063 ft 511 kts 90°
2026-04-25 19:37 47.03695 -20.93377 33079 ft 510 kts 91°
2026-04-25 19:38 47.03324 -20.82996 33069 ft 509 kts 91°
2026-04-25 19:38 47.02941 -20.72613 33144 ft 510 kts 91°
2026-04-25 19:39 47.02746 -20.67419 33356 ft 510 kts 91°
2026-04-25 19:39 47.02550 -20.62236 33590 ft 509 kts 91°
2026-04-25 19:39 47.02351 -20.57058 33796 ft 508 kts 91°
2026-04-25 19:39 47.02150 -20.51887 34019 ft 508 kts 91°
2026-04-25 19:40 47.01952 -20.46735 34300 ft 504 kts 92°
2026-04-25 19:40 47.01751 -20.41602 34509 ft 503 kts 92°
2026-04-25 19:40 47.01548 -20.36484 34670 ft 503 kts 92°
2026-04-25 19:40 47.01346 -20.31436 34829 ft 503 kts 93°
2026-04-25 19:41 47.01139 -20.26312 34990 ft 503 kts 93°
2026-04-25 19:41 47.00931 -20.21201 35152 ft 502 kts 93°
2026-04-25 19:41 47.00721 -20.16094 35320 ft 502 kts 93°
2026-04-25 19:41 47.00650 -20.14375 35375 ft 502 kts 93°
2026-04-25 19:42 47.00296 -20.05904 35648 ft 501 kts 94°
2026-04-25 19:42 47.00082 -20.00812 35894 ft 499 kts 94°
2026-04-25 19:42 46.99932 -19.95741 36022 ft 499 kts 90°
2026-04-25 19:42 47.00021 -19.90662 36059 ft 499 kts 88°
2026-04-25 19:43 47.00355 -19.80530 36062 ft 498 kts 88°
2026-04-25 19:43 47.00613 -19.70395 36067 ft 498 kts 88°
2026-04-25 19:44 47.00814 -19.60247 36064 ft 497 kts 89°
2026-04-25 19:44 47.00993 -19.50136 36063 ft 496 kts 89°
2026-04-25 19:45 47.01164 -19.40021 36066 ft 497 kts 89°
2026-04-25 19:45 47.01300 -19.31609 36073 ft 497 kts 89°
2026-04-25 19:46 47.01455 -19.21488 36059 ft 497 kts 89°
2026-04-25 19:46 47.01604 -19.11351 36075 ft 497 kts 90°
2026-04-25 19:47 47.01741 -19.01222 36082 ft 497 kts 90°
2026-04-25 19:47 47.01869 -18.91090 36083 ft 497 kts 90°
2026-04-25 19:48 47.01988 -18.81013 36084 ft 497 kts 90°
2026-04-25 19:48 47.02101 -18.70883 36085 ft 497 kts 91°
2026-04-25 19:49 47.02185 -18.62451 36091 ft 497 kts 91°
2026-04-25 19:49 47.02293 -18.50606 36094 ft 497 kts 91°
2026-04-25 19:50 47.02415 -18.35393 36095 ft 497 kts 91°
2026-04-25 19:51 47.02486 -18.25340 36099 ft 496 kts 91°
2026-04-25 19:51 47.02547 -18.15198 36110 ft 496 kts 91°
2026-04-25 19:52 47.02600 -18.05067 36104 ft 496 kts 91°
2026-04-25 19:52 47.02643 -17.95016 36118 ft 496 kts 91°
2026-04-25 19:53 47.02679 -17.84848 36108 ft 495 kts 92°
2026-04-25 19:53 47.02705 -17.74789 36115 ft 496 kts 92°
2026-04-25 19:54 47.02721 -17.64689 36126 ft 496 kts 92°
2026-04-25 19:54 47.02729 -17.54531 36121 ft 496 kts 92°
2026-04-25 19:55 47.02730 -17.44414 36136 ft 496 kts 93°
2026-04-25 19:55 47.02721 -17.34340 36134 ft 496 kts 93°
2026-04-25 19:56 47.02702 -17.24248 36144 ft 496 kts 93°
2026-04-25 19:56 47.02674 -17.14142 36149 ft 496 kts 93°
2026-04-25 19:57 47.02638 -17.04070 36152 ft 496 kts 93°
2026-04-25 19:57 47.02593 -16.93978 36155 ft 496 kts 93°
2026-04-25 19:58 47.02539 -16.83834 36155 ft 496 kts 93°
2026-04-25 19:58 47.02476 -16.73768 36157 ft 495 kts 94°
2026-04-25 19:59 47.02404 -16.63659 36148 ft 495 kts 94°
2026-04-25 19:59 47.02325 -16.53568 36161 ft 495 kts 94°
2026-04-25 20:00 47.02234 -16.43464 36173 ft 496 kts 94°
2026-04-25 20:00 47.02136 -16.33403 36166 ft 496 kts 94°
2026-04-25 20:01 47.01972 -16.18225 36165 ft 497 kts 95°
2026-04-25 20:01 47.01853 -16.08095 36186 ft 496 kts 95°
2026-04-25 20:02 47.01723 -15.97970 36186 ft 496 kts 95°
2026-04-25 20:02 47.01585 -15.87926 36189 ft 496 kts 95°
2026-04-25 20:03 47.01438 -15.77815 36189 ft 496 kts 95°
2026-04-25 20:03 47.01283 -15.67708 36191 ft 496 kts 95°
2026-04-25 20:04 47.01117 -15.57580 36195 ft 496 kts 96°
2026-04-25 20:04 47.00943 -15.47473 36195 ft 496 kts 96°
2026-04-25 20:05 47.00760 -15.37368 36203 ft 496 kts 96°
2026-04-25 20:05 47.00569 -15.27268 36201 ft 496 kts 96°
2026-04-25 20:06 47.00370 -15.17175 36213 ft 495 kts 96°
2026-04-25 20:06 47.00167 -15.07086 36201 ft 495 kts 96°
2026-04-25 20:07 46.99978 -14.97057 36202 ft 497 kts 94°
2026-04-25 20:07 47.00243 -14.86904 36208 ft 499 kts 91°
2026-04-25 20:08 47.00584 -14.76756 36213 ft 499 kts 92°
2026-04-25 20:08 47.00863 -14.66605 36219 ft 499 kts 92°
2026-04-25 20:09 47.01112 -14.56429 36223 ft 499 kts 92°
2026-04-25 20:09 47.01343 -14.46331 36224 ft 498 kts 92°
2026-04-25 20:10 47.01566 -14.36184 36224 ft 498 kts 92°
2026-04-25 20:10 47.01782 -14.26036 36225 ft 498 kts 92°
2026-04-25 20:11 47.01988 -14.15866 36227 ft 498 kts 92°
2026-04-25 20:11 47.02185 -14.05708 36216 ft 498 kts 92°
2026-04-25 20:12 47.02372 -13.95558 36232 ft 498 kts 92°
2026-04-25 20:12 47.02492 -13.88835 36228 ft 498 kts 92°
2026-04-25 20:13 47.02722 -13.75275 36229 ft 498 kts 92°
2026-04-25 20:13 47.02882 -13.65157 36211 ft 497 kts 92°
2026-04-25 20:14 47.03033 -13.55043 36233 ft 497 kts 92°
2026-04-25 20:14 47.03175 -13.44938 36234 ft 498 kts 92°
2026-04-25 20:15 47.03310 -13.34797 36239 ft 498 kts 92°
2026-04-25 20:15 47.03436 -13.24647 36239 ft 498 kts 92°
2026-04-25 20:16 47.03551 -13.14548 36233 ft 494 kts 92°
2026-04-25 20:16 47.03658 -13.04499 36234 ft 494 kts 92°
2026-04-25 20:17 47.03756 -12.94391 36246 ft 494 kts 92°
2026-04-25 20:17 47.03846 -12.84319 36244 ft 494 kts 92°
2026-04-25 20:18 47.03926 -12.74245 36231 ft 494 kts 92°
2026-04-25 20:18 47.03998 -12.64181 36235 ft 494 kts 92°
2026-04-25 20:19 47.04060 -12.54108 36241 ft 493 kts 93°
2026-04-25 20:19 47.04114 -12.44119 36236 ft 493 kts 93°
2026-04-25 20:20 47.04158 -12.34053 36235 ft 493 kts 92°
2026-04-25 20:20 47.04195 -12.24013 36239 ft 493 kts 93°
2026-04-25 20:21 47.04223 -12.13961 36246 ft 493 kts 93°
2026-04-25 20:21 47.04242 -12.03900 36248 ft 493 kts 93°
2026-04-25 20:22 47.04249 -11.97247 36223 ft 493 kts 93°
2026-04-25 20:22 47.04252 -11.83846 36238 ft 493 kts 93°
2026-04-25 20:23 47.04245 -11.73786 36248 ft 493 kts 93°
2026-04-25 20:23 47.04229 -11.63735 36242 ft 493 kts 93°
2026-04-25 20:24 47.04204 -11.53668 36239 ft 493 kts 93°
2026-04-25 20:24 47.04170 -11.43623 36246 ft 493 kts 93°
2026-04-25 20:25 47.04127 -11.33551 36250 ft 493 kts 93°
2026-04-25 20:25 47.04075 -11.23498 36239 ft 494 kts 94°
2026-04-25 20:26 47.04015 -11.13438 36237 ft 493 kts 94°
2026-04-25 20:26 47.03946 -11.03443 36256 ft 493 kts 94°
2026-04-25 20:27 47.03868 -10.93379 36247 ft 494 kts 94°
2026-04-25 20:27 47.03781 -10.83302 36247 ft 494 kts 94°
2026-04-25 20:28 47.03685 -10.73236 36254 ft 494 kts 94°
2026-04-25 20:28 47.03581 -10.63170 36256 ft 494 kts 94°
2026-04-25 20:29 47.03467 -10.53110 36251 ft 494 kts 94°
2026-04-25 20:29 47.03345 -10.43025 36247 ft 494 kts 94°
2026-04-25 20:30 47.03214 -10.32996 36263 ft 494 kts 94°
2026-04-25 20:30 47.03074 -10.22924 36261 ft 494 kts 94°
2026-04-25 20:31 47.02925 -10.12844 36261 ft 495 kts 94°
2026-04-25 20:31 47.02768 -10.02762 36244 ft 495 kts 95°
2026-04-25 20:32 47.02601 -9.92667 36247 ft 495 kts 95°
2026-04-25 20:32 47.02424 -9.82630 36252 ft 495 kts 94°
2026-04-25 20:33 47.02241 -9.72535 36251 ft 495 kts 94°
2026-04-25 20:33 47.02113 -9.65770 36250 ft 495 kts 94°
2026-04-25 20:34 47.01881 -9.54039 36250 ft 495 kts 95°
2026-04-25 20:34 47.01671 -9.43952 36249 ft 495 kts 94°
2026-04-25 20:35 47.01452 -9.33871 36250 ft 495 kts 94°
2026-04-25 20:35 47.01225 -9.23789 36239 ft 495 kts 94°
2026-04-25 20:36 47.00989 -9.13704 36253 ft 495 kts 94°
2026-04-25 20:36 47.00744 -9.03626 36235 ft 494 kts 94°
2026-04-25 20:37 47.00493 -8.93588 36248 ft 495 kts 94°
2026-04-25 20:37 47.00367 -8.88539 36359 ft 496 kts 94°
2026-04-25 20:37 47.00239 -8.83494 36546 ft 495 kts 94°
2026-04-25 20:38 47.00109 -8.78457 36719 ft 494 kts 94°
2026-04-25 20:38 46.99979 -8.73428 36904 ft 494 kts 94°
2026-04-25 20:38 46.99937 -8.68399 37069 ft 494 kts 91°
2026-04-25 20:38 46.99968 -8.63372 37227 ft 494 kts 91°
2026-04-25 20:39 47.00037 -8.53321 37243 ft 492 kts 91°
2026-04-25 20:39 47.00059 -8.45000 37243 ft 492 kts 91°
2026-04-25 20:40 47.00063 -8.33310 37244 ft 492 kts 92°
2026-04-25 20:40 47.00054 -8.23288 37245 ft 492 kts 92°
2026-04-25 20:41 47.00035 -8.13247 37244 ft 494 kts 91°
2026-04-25 20:41 46.99989 -8.03167 37245 ft 494 kts 94°
2026-04-25 20:42 46.99095 -7.93280 37248 ft 492 kts 104°
2026-04-25 20:42 46.97697 -7.83467 37254 ft 492 kts 103°
2026-04-25 20:43 46.96330 -7.73631 37251 ft 492 kts 103°
2026-04-25 20:43 46.94966 -7.63808 37250 ft 492 kts 103°
2026-04-25 20:44 46.93591 -7.54005 37255 ft 492 kts 103°
2026-04-25 20:44 46.92204 -7.44233 37248 ft 488 kts 103°
2026-04-25 20:45 46.90813 -7.34500 37238 ft 489 kts 103°
2026-04-25 20:45 46.89410 -7.24746 37237 ft 489 kts 103°
2026-04-25 20:46 46.88010 -7.15066 37233 ft 489 kts 103°
2026-04-25 20:46 46.86591 -7.05317 37243 ft 489 kts 103°
2026-04-25 20:47 46.85171 -6.95626 37244 ft 489 kts 103°
2026-04-25 20:47 46.83738 -6.85919 37241 ft 489 kts 103°
2026-04-25 20:48 46.82297 -6.76206 37240 ft 489 kts 103°
2026-04-25 20:48 46.80849 -6.66507 37240 ft 489 kts 103°
2026-04-25 20:49 46.79401 -6.56867 37235 ft 489 kts 103°
2026-04-25 20:49 46.77933 -6.47179 37227 ft 487 kts 102°
2026-04-25 20:50 46.76468 -6.37541 37234 ft 486 kts 103°
2026-04-25 20:50 46.74995 -6.27902 37229 ft 486 kts 103°
2026-04-25 20:51 46.73516 -6.18294 37232 ft 486 kts 103°
2026-04-25 20:51 46.72033 -6.08714 37233 ft 486 kts 102°
2026-04-25 20:52 46.70773 -6.00634 37238 ft 488 kts 102°
2026-04-25 20:52 46.69018 -5.89420 37238 ft 489 kts 103°
2026-04-25 20:53 46.67497 -5.79774 37244 ft 489 kts 103°
2026-04-25 20:53 46.65963 -5.70096 37244 ft 489 kts 103°
2026-04-25 20:54 46.64433 -5.60515 37241 ft 489 kts 102°
2026-04-25 20:54 46.62885 -5.50860 37230 ft 489 kts 102°
2026-04-25 20:55 46.61328 -5.41211 37234 ft 489 kts 102°
2026-04-25 20:55 46.59767 -5.31592 37228 ft 489 kts 103°
2026-04-25 20:56 46.58201 -5.22006 37221 ft 487 kts 102°
2026-04-25 20:56 46.56633 -5.12451 37224 ft 486 kts 102°
2026-04-25 20:57 46.55051 -5.02865 37220 ft 486 kts 102°
2026-04-25 20:57 46.53464 -4.93306 37224 ft 486 kts 103°
2026-04-25 20:58 46.51878 -4.83805 37222 ft 486 kts 103°
2026-04-25 20:58 46.51028 -4.74133 37213 ft 483 kts 92°
2026-04-25 20:59 46.50553 -4.64397 37198 ft 482 kts 92°
2026-04-25 20:59 46.50078 -4.54689 37200 ft 482 kts 92°
2026-04-25 21:00 46.49759 -4.48266 37201 ft 482 kts 92°
2026-04-25 21:01 46.48856 -4.30468 37196 ft 482 kts 93°
2026-04-25 21:01 46.48351 -4.20770 37203 ft 482 kts 93°
2026-04-25 21:02 46.47835 -4.11070 37205 ft 482 kts 93°
2026-04-25 21:02 46.47307 -4.01371 37199 ft 482 kts 93°
2026-04-25 21:03 46.46769 -3.91686 37196 ft 482 kts 93°
2026-04-25 21:03 46.46225 -3.81988 37195 ft 482 kts 93°
2026-04-25 21:04 46.45674 -3.72342 37196 ft 483 kts 93°
2026-04-25 21:04 46.45112 -3.62642 37199 ft 483 kts 93°
2026-04-25 21:05 46.44540 -3.52942 37200 ft 483 kts 93°
2026-04-25 21:05 46.43962 -3.43234 37199 ft 483 kts 93°
2026-04-25 21:06 46.43376 -3.33551 37191 ft 483 kts 93°
2026-04-25 21:06 46.42780 -3.23840 37195 ft 483 kts 93°
2026-04-25 21:07 46.42176 -3.14151 37194 ft 483 kts 93°
2026-04-25 21:07 46.41566 -3.04483 37189 ft 483 kts 93°
2026-04-25 21:08 46.40946 -2.94779 37193 ft 482 kts 93°
2026-04-25 21:08 46.40322 -2.85154 37190 ft 482 kts 93°
2026-04-25 21:09 46.39365 -2.70622 37190 ft 482 kts 93°
2026-04-25 21:09 46.38718 -2.60953 37190 ft 482 kts 94°
2026-04-25 21:10 46.38062 -2.51278 37189 ft 482 kts 94°
2026-04-25 21:10 46.37403 -2.41681 37188 ft 482 kts 94°
2026-04-25 21:11 46.36732 -2.32008 37185 ft 482 kts 94°
2026-04-25 21:11 46.36051 -2.22337 37181 ft 482 kts 94°
2026-04-25 21:12 46.35362 -2.12668 37181 ft 482 kts 94°
2026-04-25 21:12 46.34901 -2.06268 37175 ft 482 kts 94°
2026-04-25 21:13 46.33967 -1.93415 37176 ft 482 kts 94°
2026-04-25 21:13 46.33253 -1.83747 37177 ft 483 kts 95°
2026-04-25 21:14 46.32532 -1.74091 37173 ft 483 kts 95°
2026-04-25 21:14 46.31801 -1.64425 37174 ft 483 kts 95°
2026-04-25 21:15 46.31063 -1.54745 37168 ft 483 kts 95°
2026-04-25 21:15 46.30319 -1.45122 37170 ft 484 kts 95°
2026-04-25 21:16 46.29564 -1.35465 37175 ft 484 kts 95°
2026-04-25 21:16 46.28796 -1.25741 37180 ft 484 kts 95°
2026-04-25 21:17 46.28027 -1.16113 37177 ft 485 kts 95°
2026-04-25 21:17 46.27246 -1.06437 37178 ft 485 kts 95°
2026-04-25 21:18 46.26455 -0.96747 37177 ft 485 kts 96°
2026-04-25 21:18 46.25792 -0.88710 37163 ft 485 kts 96°
2026-04-25 21:19 46.24855 -0.77452 37173 ft 485 kts 96°
2026-04-25 21:19 46.24040 -0.67772 37169 ft 485 kts 96°
2026-04-25 21:20 46.23488 -0.61280 37166 ft 485 kts 96°
2026-04-25 21:20 46.22523 -0.50016 37166 ft 485 kts 96°
2026-04-25 21:21 46.21683 -0.40333 37173 ft 485 kts 96°
2026-04-25 21:21 46.20843 -0.30727 37168 ft 485 kts 96°
2026-04-25 21:22 46.19988 -0.21059 37168 ft 485 kts 96°
2026-04-25 21:22 46.19123 -0.11376 37170 ft 485 kts 96°
2026-04-25 21:23 46.18252 -0.01713 37169 ft 486 kts 96°
2026-04-25 21:23 46.17371 0.07964 37165 ft 486 kts 96°
2026-04-25 21:24 46.16486 0.17602 37172 ft 486 kts 97°
2026-04-25 21:24 46.15586 0.27299 37163 ft 487 kts 97°
2026-04-25 21:25 46.14681 0.36970 37163 ft 487 kts 97°
2026-04-25 21:25 46.13767 0.46647 37156 ft 488 kts 97°
2026-04-25 21:26 46.12841 0.56345 37158 ft 488 kts 97°
2026-04-25 21:26 46.11910 0.66015 37172 ft 488 kts 97°
2026-04-25 21:27 46.10965 0.75737 37172 ft 489 kts 97°
2026-04-25 21:27 46.10015 0.85440 37160 ft 489 kts 98°
2026-04-25 21:28 46.09053 0.95160 37159 ft 490 kts 98°
2026-04-25 21:28 46.08089 1.04816 37168 ft 490 kts 98°
2026-04-25 21:29 46.07108 1.14567 37188 ft 490 kts 98°
2026-04-25 21:29 46.06129 1.24221 37187 ft 490 kts 98°
2026-04-25 21:30 46.05130 1.33962 37169 ft 490 kts 98°
2026-04-25 21:30 46.04298 1.42021 37172 ft 490 kts 98°
2026-04-25 21:31 46.03115 1.53374 37184 ft 490 kts 99°
2026-04-25 21:31 46.02096 1.63084 37175 ft 490 kts 99°
2026-04-25 21:32 46.01070 1.72767 37163 ft 490 kts 99°
2026-04-25 21:32 46.00037 1.82425 37162 ft 490 kts 99°
2026-04-25 21:33 45.98993 1.92109 37179 ft 490 kts 99°
2026-04-25 21:33 45.97937 2.01833 37175 ft 490 kts 99°
2026-04-25 21:34 45.96885 2.11441 37156 ft 490 kts 99°
2026-04-25 21:34 45.95818 2.21099 37158 ft 490 kts 100°
2026-04-25 21:35 45.94738 2.30807 37155 ft 490 kts 100°
2026-04-25 21:35 45.93662 2.40402 37163 ft 489 kts 100°
2026-04-25 21:36 45.92565 2.50108 37161 ft 489 kts 100°
2026-04-25 21:36 45.91473 2.59691 37154 ft 489 kts 100°
2026-04-25 21:37 45.90547 2.67762 37160 ft 489 kts 100°
2026-04-25 21:37 45.89251 2.78965 37161 ft 488 kts 100°
2026-04-25 21:38 45.88130 2.88581 37157 ft 488 kts 100°
2026-04-25 21:38 45.87003 2.98168 37157 ft 488 kts 100°
2026-04-25 21:39 45.85875 3.07702 37161 ft 487 kts 101°
2026-04-25 21:39 45.84732 3.17282 37153 ft 487 kts 100°
2026-04-25 21:40 45.83580 3.26864 37154 ft 487 kts 101°
2026-04-25 21:40 45.82423 3.36431 37151 ft 487 kts 101°
2026-04-25 21:41 45.81257 3.45994 37156 ft 487 kts 101°
2026-04-25 21:41 45.80084 3.55550 37151 ft 487 kts 101°
2026-04-25 21:42 45.78909 3.65051 37157 ft 487 kts 101°
2026-04-25 21:42 45.77725 3.74555 37159 ft 487 kts 101°
2026-04-25 21:43 45.76525 3.84121 37156 ft 487 kts 101°
2026-04-25 21:43 45.75321 3.93651 37149 ft 487 kts 101°
2026-04-25 21:44 45.74105 4.03204 37152 ft 487 kts 101°
2026-04-25 21:45 45.72180 4.17477 37154 ft 487 kts 102°
2026-04-25 21:45 45.70888 4.26931 37153 ft 487 kts 102°
2026-04-25 21:46 45.69582 4.36446 37159 ft 487 kts 101°
2026-04-25 21:46 45.68271 4.45948 37151 ft 487 kts 101°
2026-04-25 21:47 45.66951 4.55453 37148 ft 487 kts 101°
2026-04-25 21:47 45.65625 4.64942 37147 ft 487 kts 102°
2026-04-25 21:48 45.64301 4.74368 37142 ft 486 kts 101°
2026-04-25 21:48 45.62967 4.83794 36859 ft 481 kts 101°
2026-04-25 21:48 45.62298 4.88493 36586 ft 483 kts 101°
2026-04-25 21:49 45.61622 4.93224 36331 ft 486 kts 101°
2026-04-25 21:49 45.60943 4.97960 36068 ft 487 kts 101°
2026-04-25 21:49 45.60262 5.02702 35817 ft 488 kts 101°
2026-04-25 21:49 45.59578 5.07456 35636 ft 488 kts 101°
2026-04-25 21:50 45.58894 5.12195 35395 ft 486 kts 101°
2026-04-25 21:50 45.58209 5.16919 35147 ft 486 kts 101°
2026-04-25 21:50 45.57531 5.21583 34908 ft 487 kts 101°
2026-04-25 21:50 45.57064 5.24786 34743 ft 488 kts 101°
2026-04-25 21:51 45.56147 5.31061 34422 ft 488 kts 101°
2026-04-25 21:51 45.55449 5.35818 34190 ft 489 kts 101°
2026-04-25 21:51 45.54750 5.40571 33918 ft 490 kts 101°
2026-04-25 21:51 45.54048 5.45325 33642 ft 490 kts 101°
2026-04-25 21:52 45.53347 5.50073 33377 ft 488 kts 101°
2026-04-25 21:52 45.52644 5.54807 33107 ft 488 kts 101°
2026-04-25 21:52 45.51938 5.59548 32836 ft 489 kts 101°
2026-04-25 21:52 45.51228 5.64297 32562 ft 490 kts 101°
2026-04-25 21:53 45.50489 5.69041 32295 ft 491 kts 104°
2026-04-25 21:53 45.49330 5.73615 32031 ft 492 kts 115°
2026-04-25 21:53 45.47812 5.77997 31792 ft 492 kts 116°
2026-04-25 21:53 45.46289 5.82357 31538 ft 490 kts 116°
2026-04-25 21:54 45.44772 5.86687 31287 ft 487 kts 117°
2026-04-25 21:54 45.43256 5.90990 31044 ft 485 kts 117°
2026-04-25 21:54 45.41738 5.95284 30790 ft 484 kts 117°
2026-04-25 21:54 45.40224 5.99554 30548 ft 482 kts 116°
2026-04-25 21:55 45.38715 6.03804 30309 ft 480 kts 117°
2026-04-25 21:55 45.37210 6.08037 30187 ft 478 kts 117°
2026-04-25 21:55 45.35711 6.12248 30120 ft 479 kts 117°
2026-04-25 21:56 45.32716 6.20641 30154 ft 478 kts 117°
2026-04-25 21:56 45.29702 6.29063 30151 ft 473 kts 117°
2026-04-25 21:56 45.28239 6.33140 30127 ft 456 kts 117°
2026-04-25 21:57 45.26823 6.37077 30127 ft 438 kts 117°
2026-04-25 21:57 45.24090 6.44663 30156 ft 435 kts 117°
2026-04-25 21:58 45.21319 6.52334 30146 ft 435 kts 117°
2026-04-25 21:58 45.18576 6.59911 30132 ft 432 kts 117°
2026-04-25 21:59 45.15827 6.67480 30139 ft 433 kts 117°
2026-04-25 21:59 45.14450 6.71265 29988 ft 430 kts 117°
2026-04-25 21:59 45.13082 6.75019 29578 ft 428 kts 117°
2026-04-25 22:00 45.10366 6.82454 28572 ft 421 kts 117°
2026-04-25 22:00 45.09070 6.85995 28051 ft 418 kts 117°
2026-04-25 22:00 45.07734 6.89638 27513 ft 414 kts 117°
2026-04-25 22:00 45.06411 6.93243 26938 ft 412 kts 117°
2026-04-25 22:01 45.05093 6.96827 26429 ft 409 kts 117°
2026-04-25 22:01 45.03791 7.00368 25908 ft 406 kts 117°
2026-04-25 22:01 45.02494 7.03889 25439 ft 401 kts 117°
2026-04-25 22:01 45.02077 7.05021 25245 ft 401 kts 116°
2026-04-25 22:02 44.99944 7.10800 24317 ft 397 kts 116°
2026-04-25 22:02 44.98805 7.14325 23807 ft 391 kts 108°
2026-04-25 22:02 44.98161 7.18032 23167 ft 387 kts 96°
2026-04-25 22:02 44.98111 7.21785 22550 ft 380 kts 80°
2026-04-25 22:03 44.98690 7.25404 21920 ft 376 kts 73°
2026-04-25 22:03 44.99398 7.28947 21370 ft 372 kts 72°
2026-04-25 22:03 45.00099 7.32430 21124 ft 367 kts 72°
2026-04-25 22:03 45.00776 7.35926 20835 ft 368 kts 73°
2026-04-25 22:04 45.01432 7.39428 20448 ft 367 kts 73°
2026-04-25 22:04 45.02060 7.42859 19940 ft 364 kts 73°
2026-04-25 22:04 45.02684 7.46318 19339 ft 362 kts 73°
2026-04-25 22:04 45.03302 7.49756 18793 ft 359 kts 73°
2026-04-25 22:05 45.03917 7.53178 18132 ft 357 kts 73°
2026-04-25 22:05 45.04525 7.56561 17575 ft 353 kts 73°
2026-04-25 22:05 45.05124 7.59902 17045 ft 348 kts 73°
2026-04-25 22:05 45.05715 7.63203 16497 ft 344 kts 73°
2026-04-25 22:06 45.06290 7.66429 16351 ft 336 kts 73°
2026-04-25 22:06 45.06675 7.68582 16285 ft 343 kts 73°
2026-04-25 22:06 45.07252 7.71824 16178 ft 333 kts 73°
2026-04-25 22:06 45.07799 7.74919 16070 ft 316 kts 73°
2026-04-25 22:07 45.08324 7.77891 16054 ft 314 kts 73°
2026-04-25 22:07 45.08687 7.79932 16053 ft 317 kts 73°
2026-04-25 22:07 45.09396 7.83925 15946 ft 314 kts 73°
2026-04-25 22:07 45.09924 7.86915 15624 ft 312 kts 73°
2026-04-25 22:08 45.10447 7.89883 15166 ft 308 kts 73°
2026-04-25 22:08 45.10962 7.92804 14517 ft 304 kts 74°
2026-04-25 22:08 45.11471 7.95696 13861 ft 301 kts 74°
2026-04-25 22:08 45.11973 7.98562 13142 ft 298 kts 74°
2026-04-25 22:09 45.12464 8.01364 12417 ft 295 kts 75°
2026-04-25 22:09 45.12964 8.04217 11855 ft 294 kts 75°
2026-04-25 22:09 45.13446 8.06978 11333 ft 291 kts 75°
2026-04-25 22:09 45.13926 8.09746 11076 ft 276 kts 75°
2026-04-25 22:10 45.14365 8.12290 10846 ft 257 kts 75°
2026-04-25 22:10 45.14786 8.14717 10321 ft 252 kts 75°
2026-04-25 22:10 45.15208 8.17131 9710 ft 252 kts 75°
2026-04-25 22:10 45.15620 8.19499 9327 ft 247 kts 75°
2026-04-25 22:11 45.16028 8.21859 9229 ft 252 kts 75°
2026-04-25 22:11 45.16445 8.24272 9125 ft 251 kts 75°
2026-04-25 22:11 45.16859 8.26670 9056 ft 250 kts 75°
2026-04-25 22:11 45.17272 8.29063 9048 ft 250 kts 75°
2026-04-25 22:12 45.17684 8.31462 9050 ft 251 kts 75°
2026-04-25 22:12 45.18096 8.33863 9055 ft 251 kts 75°
2026-04-25 22:12 45.18509 8.36268 9047 ft 250 kts 75°
2026-04-25 22:12 45.18779 8.37845 8922 ft 247 kts 75°
2026-04-25 22:13 45.19320 8.41005 8280 ft 246 kts 75°
2026-04-25 22:13 45.19723 8.43364 7695 ft 245 kts 75°
2026-04-25 22:13 45.20123 8.45710 7137 ft 245 kts 75°
2026-04-25 22:13 45.20524 8.48058 6689 ft 244 kts 75°
2026-04-25 22:14 45.21051 8.50294 6225 ft 241 kts 57°
2026-04-25 22:14 45.22182 8.51952 5793 ft 234 kts 30°
2026-04-25 22:14 45.23719 8.52603 5346 ft 231 kts 359°
2026-04-25 22:14 45.25277 8.52182 5276 ft 232 kts 345°
2026-04-25 22:15 45.26865 8.51583 5179 ft 236 kts 346°
2026-04-25 22:15 45.28448 8.51043 5054 ft 235 kts 347°
2026-04-25 22:15 45.30047 8.50561 4825 ft 233 kts 349°
2026-04-25 22:16 45.32993 8.51879 4188 ft 230 kts 48°
2026-04-25 22:16 45.33738 8.53906 4122 ft 238 kts 75°
2026-04-25 22:16 45.34000 8.56207 4021 ft 235 kts 83°
2026-04-25 22:16 45.34174 8.58519 3999 ft 235 kts 83°
2026-04-25 22:17 45.34382 8.60826 3999 ft 235 kts 81°
2026-04-25 22:17 45.34562 8.63138 3987 ft 236 kts 92°
2026-04-25 22:17 45.34083 8.65352 4002 ft 238 kts 122°
2026-04-25 22:17 45.32893 8.66960 4003 ft 239 kts 152°
2026-04-25 22:18 45.31303 8.67637 3995 ft 240 kts 171°
2026-04-25 22:18 45.29691 8.67897 3995 ft 227 kts 175°
2026-04-25 22:18 45.28139 8.68218 3903 ft 226 kts 161°
2026-04-25 22:18 45.26823 8.69388 3633 ft 224 kts 132°
2026-04-25 22:19 45.26091 8.71298 3261 ft 220 kts 101°
2026-04-25 22:19 45.26171 8.73419 3196 ft 223 kts 74°
2026-04-25 22:19 45.26583 8.75543 3099 ft 222 kts 73°
2026-04-25 22:19 45.27130 8.77562 3000 ft 220 kts 54°
2026-04-25 22:20 45.28259 8.78936 2995 ft 213 kts 23°
2026-04-25 22:20 45.29616 8.79493 2993 ft 195 kts 13°
2026-04-25 22:20 45.30948 8.79961 2991 ft 198 kts 13°
2026-04-25 22:20 45.32285 8.80430 2999 ft 198 kts 13°
2026-04-25 22:21 45.33633 8.80859 2999 ft 198 kts
2026-04-25 22:21 45.34992 8.80928 2997 ft 192 kts 355°
2026-04-25 22:21 45.36283 8.80688 3001 ft 186 kts 350°
2026-04-25 22:21 45.37565 8.80345 2999 ft 188 kts 349°
2026-04-25 22:22 45.38854 8.79992 2996 ft 187 kts 349°
2026-04-25 22:22 45.40135 8.79643 2998 ft 188 kts 349°
2026-04-25 22:22 45.41422 8.79291 2998 ft 187 kts 349°
2026-04-25 22:22 45.42692 8.78943 3000 ft 188 kts 349°
2026-04-25 22:23 45.43971 8.78595 3015 ft 186 kts 348°
2026-04-25 22:23 45.45260 8.78241 3023 ft 190 kts 348°
2026-04-25 22:23 45.46548 8.77887 3023 ft 188 kts 348°
2026-04-25 22:23 45.47838 8.77533 3023 ft 186 kts 348°
2026-04-25 22:24 45.49034 8.77206 3012 ft 164 kts 348°
2026-04-25 22:24 45.50180 8.76888 2997 ft 170 kts 348°
2026-04-25 22:24 45.51329 8.76574 2768 ft 165 kts 347°
2026-04-25 22:24 45.52472 8.76257 2542 ft 169 kts 347°
2026-04-25 22:25 45.53605 8.75947 2337 ft 167 kts 347°
2026-04-25 22:25 45.54758 8.75629 2100 ft 161 kts 347°
2026-04-25 22:25 45.55800 8.75343 1906 ft 153 kts 346°
2026-04-25 22:25 45.56851 8.75052 1678 ft 150 kts 347°
2026-04-25 22:26 45.57887 8.74764 1467 ft 151 kts 347°
2026-04-25 22:26 45.58914 8.74481 1265 ft 151 kts 347°
2026-04-25 22:26 45.59934 8.74199 974 ft 143 kts 349°
2026-04-25 22:26 45.60942 8.73919 872 ft 152 kts 349°
2026-04-25 22:27 45.61951 8.73649 748 ft 143 kts 348°
2026-04-25 22:27 45.62726 8.73431 749 ft 84 kts 349°
2026-04-25 22:27 45.63061 8.73313 747 ft 40 kts 336°
2026-04-25 22:27 45.63257 8.73076 753 ft 35 kts 305°
2026-04-25 22:28 45.63313 8.72958 756 ft 10 kts 304°
2026-04-25 22:28 45.63355 8.72868 756 ft 12 kts 304°
2026-04-25 22:28 45.63384 8.72806 754 ft 0 kts 302°
2026-04-25 22:28 45.63390 8.72791 753 ft 4 kts 300°
2026-04-25 22:29 45.63411 8.72689 758 ft 17 kts 277°
2026-04-25 22:29 45.63385 8.72472 754 ft 27 kts 259°
2026-04-25 22:29 45.63358 8.72280 750 ft 17 kts 258°
2026-04-25 22:30 45.63327 8.72054 754 ft 0 kts 259°
2026-04-25 22:31 45.63327 8.72052 754 ft 1 kts 259°
2026-04-25 22:31 45.63322 8.72018 736 ft 7 kts 258°
2026-04-25 22:31 45.63270 8.71976 755 ft 12 kts 186°
2026-04-25 22:32 45.63165 8.71998 753 ft 19 kts 167°
2026-04-25 22:32 45.63091 8.72019 755 ft 2 kts 169°
2026-04-25 22:32 45.63087 8.72021 752 ft 0 kts 169°
2026-04-25 22:33 45.63081 8.72022 755 ft 3 kts 169°
2026-04-25 22:34 45.63033 8.72029 754 ft 10 kts 186°
2026-04-25 22:34 45.62994 8.71954 757 ft 10 kts 254°
2026-04-25 22:34 45.62978 8.71849 755 ft 12 kts 258°
2026-04-25 22:34 45.62961 8.71730 757 ft 13 kts 258°
2026-04-25 22:35 45.62955 8.71687 754 ft 5 kts 258°
2026-04-25 22:35 45.62917 8.71664 754 ft 7 kts 178°
2026-04-25 22:35 45.62879 8.71665 757 ft 0 kts 184°
2026-04-25 22:35 45.62870 8.71651 753 ft 0 kts 221°
2026-04-25 22:36 45.62867 8.71642 753 ft 1 kts 232°
2026-04-25 22:36 45.62866 8.71639 753 ft 0 kts 234°